GFSFLT1_500_spd_000.txt.gz
Wind_Speed
13 13 17 21 22 23 23 24 25 26 27 28 28 28 28 29 29 28 27 28 28 28 28 28 27 28 28 29 28 28 28 28 28
17 18 17 19 20 22 24 24 24 25 26 28 28 27 27 27 27 26 25 28 31 31 33 33 34 33 34 35 36 35 34 34 34
17 19 20 21 23 24 25 26 27 28 28 27 28 28 28 28 29 30 29 29 31 33 35 37 38 38 38 39 40 40 39 40 41
13 16 19 21 23 25 27 28 29 30 30 30 30 30 31 33 34 34 35 35 37 38 39 39 41 42 43 43 45 45 46 47 48
13 14 15 17 19 21 23 25 27 29 31 31 32 33 34 34 35 36 37 38 40 40 41 42 45 46 46 46 49 48 48 47 48
19 18 18 20 20 22 23 24 25 27 29 31 33 34 35 35 36 38 39 40 42 43 43 43 43 42 39 37 36 36 36 38 41
23 23 24 25 25 27 27 27 28 29 31 32 33 34 36 37 38 39 40 40 40 38 36 36 34 33 33 33 33 34 33 35 36
31 30 28 28 29 30 32 32 33 35 36 36 36 36 36 36 37 37 37 37 36 35 34 34 34 37 37 37 37 37 38 39 40
32 34 33 33 33 33 34 35 36 37 36 36 36 36 36 35 35 35 34 35 36 37 38 39 40 40 42 42 43 42 43 43 43
33 35 36 36 34 33 33 35 36 35 34 33 31 31 32 32 33 33 35 36 38 38 40 41 42 43 44 43 44 45 46 45 45
33 32 29 29 33 32 32 35 36 34 32 32 32 33 34 34 35 37 38 39 39 40 42 42 44 46 46 47 48 50 51 51 52
26 27 26 27 29 31 33 36 37 36 34 34 35 36 37 37 38 40 40 41 41 43 45 45 47 49 50 50 52 53 54 56 57
25 26 28 30 32 34 37 40 40 37 35 35 37 38 39 40 41 41 42 43 44 46 47 48 50 51 54 56 59 60 61 63 64
28 29 33 34 36 39 42 43 42 38 37 38 39 41 41 41 42 43 45 46 48 50 52 54 57 60 62 64 66 67 68 70 71
33 34 37 39 40 42 43 45 44 40 38 39 40 41 41 43 44 47 49 51 54 57 60 62 65 66 68 70 71 72 73 74 74
35 38 40 42 42 43 44 43 42 41 40 39 41 44 45 47 50 53 55 58 61 64 66 68 70 71 72 74 75 76 77 78 79
38 41 43 43 44 44 41 37 38 41 42 43 44 45 48 51 55 57 60 63 64 67 69 70 72 73 74 74 75 76 78 78 80
42 42 42 43 39 36 37 39 40 43 47 49 51 53 54 55 56 59 62 65 66 67 68 70 71 73 74 75 77 79 80 82 84
41 42 41 37 37 38 40 43 44 46 49 53 58 63 66 68 67 64 64 66 67 67 67 69 72 74 76 79 81 83 85 88 91
41 40 38 39 39 42 44 46 49 52 55 57 60 64 67 71 74 73 71 66 64 66 70 74 77 81 83 85 89 92 94 98 101

GFSFLT1_500_spd_003.txt.gz
Wind_Speed
15 15 16 15 18 22 23 24 24 25 25 27 28 30 31 32 32 32 32 32 32 32 33 32 31 30 30 29 31 31 31 30 30
16 16 18 19 21 22 22 24 24 24 26 26 27 29 30 30 31 31 30 30 31 30 31 33 34 35 35 36 35 37 37 37 36
15 17 17 19 21 23 25 26 28 28 29 30 31 31 33 33 33 33 33 33 33 34 33 34 36 38 39 40 40 41 42 42 42
10 12 14 15 18 21 23 25 27 28 30 31 33 34 35 37 36 36 36 36 36 37 38 39 40 43 43 44 44 45 45 46 47
15 17 19 19 20 21 22 23 25 25 27 29 31 34 37 38 39 39 38 39 39 39 40 41 41 43 44 46 47 48 48 49 51
19 22 24 24 24 25 26 27 27 28 29 30 31 34 36 37 38 39 39 39 39 40 42 43 44 43 44 42 41 40 41 40 39
26 29 32 32 31 31 30 30 31 32 33 35 37 38 38 38 39 40 40 40 40 40 40 40 39 38 36 37 36 37 38 39 38
29 32 33 33 35 35 34 33 33 34 35 36 37 37 36 37 38 38 38 39 39 38 37 36 36 35 36 38 38 39 40 41 42
33 34 35 38 37 36 35 33 33 34 36 36 37 36 36 34 34 34 35 36 37 38 38 39 39 40 41 41 42 44 44 45 45
33 33 33 32 30 30 27 29 30 31 33 35 36 35 34 33 34 35 36 37 37 39 40 41 42 43 44 45 45 46 47 47 47
33 33 31 26 25 26 27 27 29 32 36 38 38 37 35 35 36 37 39 40 40 41 42 43 43 44 45 48 49 48 48 49 50
32 31 26 25 26 28 30 31 33 36 38 38 38 37 37 37 38 40 41 42 44 44 44 44 45 46 46 48 49 50 51 53 54
32 26 25 27 30 33 34 37 39 40 41 44 42 40 40 41 42 43 43 44 45 46 47 48 49 50 51 53 55 57 60 62 63
32 31 29 31 35 37 37 39 41 43 44 46 45 41 40 42 43 44 45 47 47 49 51 53 54 56 59 61 63 64 65 66 68
32 29 30 33 36 39 42 45 45 45 43 41 40 40 40 42 45 46 48 50 52 54 57 59 61 62 65 66 68 69 70 71 71
27 29 32 37 40 42 43 47 46 39 34 35 38 41 42 44 46 49 53 56 57 60 62 64 66 67 69 70 71 71 72 72 72
29 33 37 39 41 43 46 44 37 37 38 39 40 41 44 48 51 53 56 60 61 64 66 68 69 69 68 68 68 69 70 72 73
34 38 39 41 43 46 42 38 39 41 44 44 46 47 48 50 52 56 59 62 64 65 66 65 64 65 65 66 69 72 75 76 79
39 40 41 43 45 43 40 41 42 44 46 50 53 56 60 60 58 56 60 62 62 62 61 62 65 68 71 74 77 80 82 84 85
41 42 42 43 43 41 42 43 45 48 50 53 56 59 62 67 67 64 62 58 57 59 62 66 69 74 78 82 84 87 90 92 95

GFSFLT1_500_spd_006.txt.gz
Wind_Speed
11 13 14 15 16 16 17 19 22 24 24 24 25 25 25 27 27 28 29 30 30 31 31 32 31 32 33 33 33 32 31 30 29
12 13 15 17 18 19 21 23 25 26 26 27 27 29 30 31 31 31 31 31 31 31 31 31 31 29 30 33 35 35 36 37 36
7 8 11 13 16 19 20 22 24 26 28 29 31 31 33 33 34 35 35 35 35 34 34 34 34 34 33 34 36 37 39 41 41
8 11 12 13 16 18 18 20 21 22 23 24 26 27 29 31 33 35 36 37 38 38 38 37 36 37 38 38 40 41 41 43 44
13 16 17 20 22 23 24 25 25 26 28 27 28 29 30 31 32 34 34 35 37 37 38 38 39 39 40 41 43 43 45 46 48
16 19 21 26 29 32 32 31 30 31 31 30 31 32 33 35 36 37 38 38 38 38 39 39 41 41 42 43 43 44 44 44 43
20 22 26 29 31 33 35 36 35 35 34 33 33 33 34 34 35 36 35 36 38 40 40 39 39 39 39 39 38 38 39 40 39
22 25 29 32 34 35 37 35 34 34 33 33 32 32 32 33 33 32 31 31 31 33 34 35 35 34 35 36 37 38 38 38 38
25 28 30 34 36 34 29 25 24 24 27 30 30 31 33 34 35 35 34 33 34 34 35 35 36 37 37 38 38 38 39 39 40
28 31 33 34 33 29 25 23 25 26 27 28 31 35 35 36 36 35 36 35 36 36 37 38 39 41 41 41 42 41 41 42 42
31 32 33 33 32 27 25 25 28 30 32 34 36 37 38 39 39 38 37 36 37 39 40 41 42 43 43 44 45 45 46 45 45
29 29 31 33 30 27 27 28 31 34 36 38 41 43 43 42 40 39 39 39 40 41 42 43 44 44 45 46 47 48 49 50 50
26 30 32 33 32 31 29 32 34 37 40 43 44 44 44 43 39 37 38 40 41 42 44 45 46 46 48 49 51 52 54 56 58
27 31 33 33 30 30 32 33 37 40 41 43 43 40 36 36 37 38 39 41 42 44 46 48 50 52 54 55 57 57 58 60 62
30 33 32 28 28 32 34 37 37 39 41 41 36 34 36 38 40 41 43 45 47 49 51 53 55 56 57 59 61 62 63 64 64
30 30 28 29 31 35 38 38 39 41 41 35 37 37 40 41 42 44 46 50 52 54 57 58 59 61 63 64 64 65 64 65 65
31 32 32 33 36 39 39 39 42 43 39 37 37 39 43 46 47 49 51 54 55 58 61 63 64 65 65 65 65 65 64 65 66
34 35 37 38 40 42 41 42 44 43 41 40 41 43 44 45 46 51 55 57 61 62 63 63 64 63 63 63 64 67 69 72 74
38 40 41 42 44 42 42 44 42 41 42 44 48 50 53 54 54 52 56 58 59 61 61 60 61 63 66 69 71 74 78 80 83
41 43 44 45 43 43 44 43 41 43 45 48 51 54 58 62 63 62 57 60 61 60 60 62 64 66 69 73 76 79 82 85 89

GFSFLT1_500_spd_009.txt.gz
Wind_Speed
9 10 12 13 14 14 15 17 18 19 19 21 23 24 25 25 26 27 27 28 28 28 28 28 28 28 28 27 28 32 33 33 32
9 10 10 11 12 14 17 18 20 21 22 23 25 26 27 29 30 31 32 32 31 33 32 32 31 30 30 29 28 29 32 33 34
8 7 5 5 6 8 11 14 15 18 19 21 22 22 23 25 27 29 30 31 32 34 34 34 35 34 32 32 33 32 33 34 35
10 10 11 13 14 15 17 19 21 22 22 22 23 24 26 25 26 28 29 30 32 33 34 34 35 35 34 34 35 35 36 38 39
14 13 13 15 20 22 25 27 29 29 28 28 28 27 27 27 28 29 31 33 34 36 36 35 35 36 36 37 37 38 39 40 42
18 17 16 18 22 25 26 29 32 32 31 31 30 29 28 29 29 30 31 32 33 34 35 35 37 36 36 37 38 39 39 40 40
22 20 20 20 25 27 28 32 31 27 25 26 26 28 29 30 29 28 29 29 30 30 30 31 31 32 34 35 36 36 35 33 34
23 22 20 22 27 27 31 33 25 19 19 19 19 22 23 26 28 27 29 29 29 29 29 29 29 29 29 30 31 32 32 32 33
26 22 22 25 28 29 32 30 22 19 22 21 22 22 25 28 30 32 34 35 34 34 33 33 33 33 33 34 34 35 35 36 37
26 25 25 27 30 31 32 28 23 23 24 24 27 29 31 34 36 37 37 37 37 36 35 35 36 37 38 38 38 39 40 41 40
25 25 27 30 30 31 30 28 25 26 28 29 32 34 36 39 41 42 41 40 38 37 37 38 38 39 39 40 42 43 44 44 45
23 25 27 28 30 31 31 29 29 29 31 33 36 39 38 40 41 41 38 36 35 35 37 38 39 40 41 42 44 44 45 46 47
23 24 25 27 31 31 31 30 28 30 33 36 38 39 40 39 34 31 32 34 35 37 39 40 41 41 43 44 46 48 48 50 52
24 24 26 29 32 33 30 28 28 32 36 38 38 41 40 36 33 34 36 38 39 40 42 44 45 47 49 50 52 53 53 54 56
25 25 28 30 33 30 29 29 31 36 39 39 40 41 39 37 36 37 40 42 45 47 49 51 53 54 54 55 57 57 58 59 60
26 27 28 30 31 31 32 34 36 38 38 40 42 40 38 38 39 42 44 47 49 52 54 55 57 58 60 60 59 60 61 62 64
29 29 30 32 33 35 37 39 41 40 39 40 39 40 40 41 42 45 48 50 53 56 58 60 61 61 60 61 63 63 64 65 66
33 33 34 35 37 39 41 44 45 43 42 42 42 40 39 41 44 47 52 55 57 60 62 62 62 64 65 65 66 67 68 70 72
37 38 38 39 40 43 45 47 46 45 45 44 42 44 45 47 47 47 50 54 60 60 62 64 65 65 65 66 69 71 73 75 77
39 39 40 42 44 46 49 49 47 47 45 44 46 48 51 54 56 55 56 59 59 63 65 65 63 63 64 67 70 73 76 80 84

GFSFLT1_500_spd_012.txt.gz
Wind_Speed
12 12 13 13 14 15 16 16 16 17 19 20 21 22 23 24 24 24 26 27 28 28 28 29 29 31 30 29 29 28 27 28 33
12 12 12 11 12 13 14 14 14 15 17 17 20 21 23 25 24 25 25 26 28 30 29 30 31 32 32 32 30 30 30 29 29
13 12 11 9 8 7 9 11 13 15 17 18 19 20 21 22 22 22 23 24 25 28 28 30 31 32 33 33 32 32 32 32 32
14 13 12 12 12 14 16 20 22 24 26 27 27 26 25 25 25 25 26 26 28 30 31 33 34 35 35 34 33 33 34 34 35
18 17 17 16 15 17 21 21 24 24 28 29 28 28 29 28 26 27 27 27 28 29 30 32 33 34 36 36 35 34 35 36 37
22 21 21 20 19 19 20 23 24 26 24 22 22 23 24 25 24 26 27 27 29 30 31 31 30 30 33 34 35 34 33 34 34
23 24 24 23 22 21 21 25 25 27 20 15 14 15 17 20 21 23 24 27 26 27 28 28 30 30 29 28 29 30 30 30 31
28 27 27 27 25 23 23 27 27 28 23 18 16 18 19 21 21 25 27 29 30 31 32 32 32 30 30 30 31 32 32 32 33
29 31 30 28 27 26 25 28 30 29 25 22 21 22 23 25 27 29 31 35 37 37 38 37 35 35 34 32 33 35 35 36 37
29 31 31 30 29 26 27 31 30 30 28 25 26 26 28 29 31 35 37 39 40 39 38 38 38 37 36 36 36 37 38 38 39
30 31 30 30 29 28 30 31 30 31 30 30 30 30 31 33 36 35 39 40 38 36 33 32 33 35 36 37 38 39 41 41 42
30 31 29 30 29 29 29 31 32 32 33 32 32 32 34 36 36 38 40 38 34 32 33 34 35 37 38 40 41 43 43 45 46
30 31 30 30 30 30 30 31 33 35 33 31 32 34 37 37 38 40 39 36 35 35 37 39 40 41 43 45 46 48 48 50 51
32 31 32 31 30 30 31 32 35 33 31 33 35 37 40 39 40 40 40 38 39 40 41 43 45 47 49 51 53 54 56 56 57
34 33 32 31 30 30 32 32 33 32 34 36 39 41 42 41 42 43 42 41 42 44 46 49 50 51 53 55 56 57 58 59 60
35 33 31 31 32 32 33 34 35 36 38 41 42 44 43 43 44 44 44 45 46 48 51 52 54 56 57 60 60 60 61 60 60
36 35 34 34 34 35 36 36 38 40 42 43 47 48 46 46 46 46 47 49 50 52 55 57 59 61 62 64 63 62 62 64 65
38 37 36 37 38 39 40 41 42 43 45 46 48 48 47 47 47 47 50 53 55 57 59 61 64 66 67 66 67 67 68 70 71
37 39 39 40 41 43 43 44 45 47 48 49 51 50 50 49 47 47 51 54 57 60 62 65 69 69 70 71 73 73 73 73 72
37 39 41 42 43 45 46 47 47 49 50 52 52 51 50 51 51 52 54 57 59 61 64 68 68 70 74 74 72 71 72 73 75

GFSFLT1_500_spd_015.txt.gz
Wind_Speed
16 16 16 16 16 17 18 18 18 17 17 18 18 20 21 22 22 24 25 25 27 27 28 28 29 29 29 29 29 29 27 28 26
16 16 16 15 15 16 15 15 15 14 14 14 16 19 19 20 20 21 22 23 24 24 25 26 26 28 29 30 31 31 29 30 29
17 17 16 15 15 14 13 13 13 14 16 19 22 23 23 23 23 24 24 25 25 25 26 28 28 30 32 32 32 31 30 30 31
18 18 17 15 15 15 16 18 19 22 22 24 26 30 31 29 28 28 26 26 26 26 26 27 27 29 31 32 33 34 33 32 32
19 19 19 19 19 19 20 20 22 22 25 24 25 25 25 27 28 27 29 27 26 27 27 27 29 29 30 32 32 32 33 34 33
22 23 23 23 24 24 24 23 23 23 25 24 22 17 16 18 22 22 24 25 25 26 27 28 29 28 26 28 28 28 28 30 30
26 25 26 27 27 28 27 26 25 25 27 26 24 21 17 16 16 18 19 21 23 25 28 29 29 29 29 30 30 30 29 29 29
28 29 30 30 30 30 30 28 27 28 29 28 26 24 22 20 21 22 23 26 26 29 31 32 34 35 33 31 33 33 32 32 33
31 31 33 34 34 32 31 31 30 30 31 30 28 28 27 26 25 26 27 29 31 33 35 36 36 35 35 34 35 35 35 35 35
29 32 34 35 35 35 34 35 32 30 34 31 31 29 30 30 29 29 29 33 34 36 36 36 36 34 30 30 33 35 37 37 37
28 30 33 35 35 35 36 35 32 33 34 33 33 33 33 33 34 32 34 34 36 38 38 36 34 33 32 33 34 35 36 38 39
30 31 34 36 35 35 35 34 33 33 33 34 35 36 34 33 33 35 37 37 38 39 39 37 36 36 37 38 39 41 42 43 45
33 34 36 36 36 35 36 35 35 34 34 35 37 35 32 33 35 37 40 40 40 41 42 39 39 39 41 42 43 45 48 49 51
36 36 37 37 36 36 37 36 35 35 33 34 33 33 34 36 38 39 41 42 42 43 43 43 42 43 45 47 50 52 52 54 55
39 38 36 38 38 37 37 36 36 35 35 35 35 36 38 40 41 42 44 44 46 46 46 45 46 47 50 52 54 55 56 58 60
40 38 37 39 39 39 37 37 37 38 37 38 38 41 43 43 45 45 47 47 48 49 49 49 50 52 55 56 57 59 61 62 62
39 39 39 39 40 40 40 40 40 41 42 42 42 44 46 47 49 50 51 51 51 52 52 53 55 57 59 60 61 63 65 65 66
38 38 39 40 40 42 42 43 43 44 46 45 46 46 48 49 50 51 52 53 53 54 54 57 60 62 63 66 67 68 69 70 69
37 38 39 40 41 43 45 47 47 47 47 47 48 49 50 51 51 51 53 53 54 56 58 61 64 67 69 71 72 71 72 74 74
38 38 41 42 42 43 45 47 47 48 49 50 50 50 51 53 54 52 53 55 56 59 60 62 64 66 68 69 71 75 75 75 74

GFSFLT1_500_spd_018.txt.gz
Wind_Speed
19 17 18 17 17 17 17 17 19 18 18 18 19 20 20 21 23 24 24 27 25 26 26 26 26 26 26 26 27 27 27 27 27
19 18 17 17 17 16 16 16 16 17 17 17 17 17 19 21 22 23 23 25 23 23 22 22 23 24 25 26 27 28 29 28 27
19 19 18 17 17 16 16 16 16 15 16 17 21 24 26 28 29 27 29 26 26 25 24 24 25 25 26 27 28 29 31 31 30
20 18 19 17 17 16 16 16 17 18 21 23 24 25 28 29 30 30 33 31 28 26 25 26 26 26 26 25 27 29 31 31 30
23 20 20 19 19 20 19 20 21 22 23 24 25 25 23 20 19 22 27 28 28 25 25 27 28 28 28 28 29 29 28 27 26
26 24 23 23 22 23 24 25 25 25 25 25 26 26 23 23 17 18 17 22 24 23 26 24 24 24 25 27 28 29 31 31 29
27 27 27 27 26 27 28 29 31 30 28 26 28 29 27 26 22 22 19 19 20 21 24 26 27 28 29 32 32 32 33 32 31
26 27 29 29 30 30 30 31 33 32 32 29 29 31 30 26 27 27 24 24 24 25 26 28 30 32 31 32 33 34 34 34 34
25 27 28 31 32 33 34 34 34 33 34 34 33 32 32 30 28 30 30 28 28 28 29 30 33 34 34 32 32 30 31 33 34
28 29 29 28 31 32 33 34 34 36 36 35 34 34 34 32 31 32 33 33 31 30 32 32 34 35 34 32 30 30 30 30 30
30 30 31 30 30 30 32 34 35 35 35 35 35 36 34 33 33 34 34 34 33 33 33 34 35 35 35 35 34 33 34 34 36
34 31 32 32 31 33 33 34 34 34 34 35 36 35 33 34 35 33 32 32 32 33 34 35 36 37 38 38 38 37 37 38 39
35 33 33 34 34 34 35 36 35 35 35 35 36 35 34 33 32 32 31 33 34 35 35 36 39 40 40 41 41 41 41 43 45
37 35 35 35 36 37 36 37 35 36 36 35 35 34 33 33 33 34 35 36 37 38 39 41 41 42 44 44 44 44 45 48 50
36 35 36 36 37 38 37 38 37 37 36 37 37 37 35 35 37 38 39 40 42 42 43 44 44 45 47 48 47 48 50 52 54
35 35 38 39 38 39 38 39 39 39 38 39 40 41 43 44 42 41 41 42 44 46 46 47 47 49 51 50 50 52 55 57 59
37 36 39 39 39 40 40 40 40 40 41 42 44 43 44 46 46 46 44 45 45 47 48 50 52 54 53 52 54 56 58 61 64
39 38 39 40 39 40 40 39 40 42 44 46 47 48 49 47 47 48 48 47 48 50 51 54 56 57 56 57 59 63 65 66 66
39 39 40 41 40 40 41 42 42 43 44 47 49 50 50 50 48 49 48 49 50 52 54 56 57 58 60 63 66 69 68 68 68
38 39 40 40 41 42 42 42 44 46 47 49 50 52 51 50 49 47 49 50 53 56 56 55 56 59 63 66 68 69 70 72 74

GFSFLT1_500_spd_021.txt.gz
Wind_Speed
23 23 22 22 21 20 19 19 18 18 19 20 19 19 20 21 21 23 24 25 24 25 26 26 27 26 24 24 24 24 24 24 24
25 24 23 21 20 19 19 18 19 18 17 17 16 17 19 22 22 25 28 27 26 26 25 25 24 25 25 25 26 26 27 27 28
26 25 23 21 20 20 19 18 17 16 16 16 16 20 24 27 26 29 31 32 32 30 28 26 26 26 25 25 26 25 24 24 26
25 25 24 21 20 19 18 17 17 17 17 18 21 24 24 24 25 25 24 23 27 29 29 29 27 26 27 28 27 28 28 28 26
24 24 24 23 22 20 20 20 20 21 21 23 23 26 26 24 24 24 22 19 20 23 26 26 25 25 26 26 24 24 26 27 27
22 23 24 24 24 23 23 24 25 26 26 26 27 27 27 25 26 27 26 21 19 20 21 24 24 21 24 28 28 30 30 30 31
19 21 23 25 26 27 26 27 28 29 30 31 31 31 30 28 28 28 27 26 25 23 24 23 24 24 26 27 30 30 31 32 33
20 20 21 24 26 28 30 31 30 31 32 33 33 33 33 32 30 29 29 29 30 28 27 27 27 26 27 29 31 30 32 31 29
24 23 24 25 26 27 28 30 31 32 33 34 35 35 35 34 33 31 30 30 30 33 32 31 29 30 28 29 29 30 30 30 28
24 26 24 28 29 29 29 27 27 28 30 32 34 34 35 35 35 35 33 32 32 33 34 35 32 31 31 30 30 29 31 33 32
29 28 29 29 32 32 30 29 30 31 32 32 32 33 34 34 35 36 34 33 33 33 32 32 31 30 30 30 31 32 33 34 36
34 31 32 32 32 32 32 32 33 34 33 32 32 32 31 32 33 33 34 32 31 30 31 30 31 31 32 32 33 34 35 37 38
33 31 32 33 33 32 31 31 33 34 35 33 32 31 31 31 32 32 32 32 32 32 32 33 34 35 36 36 36 37 38 39 41
31 31 33 33 32 33 33 33 34 34 35 35 34 33 32 33 34 34 34 36 37 38 38 38 39 40 40 40 40 41 42 43 45
31 32 34 34 32 33 34 35 36 35 35 36 36 36 35 36 38 39 41 43 43 43 43 43 43 44 44 44 44 45 46 48 49
32 33 33 35 34 34 35 36 37 36 36 37 36 37 39 41 42 42 43 44 44 46 46 46 46 45 45 46 47 49 52 52 52
36 36 36 36 38 37 37 38 38 38 38 38 37 38 41 43 45 45 47 47 47 47 47 47 47 47 48 48 51 54 54 53 54
33 34 37 38 40 38 38 38 39 39 40 41 40 41 41 43 46 48 50 50 50 48 47 48 48 49 51 54 56 55 55 56 58
35 36 34 36 37 38 38 38 39 41 41 41 42 43 45 46 47 50 51 50 49 49 48 49 50 53 56 57 56 56 59 62 64
37 38 35 35 35 38 37 38 40 41 42 43 44 45 46 48 47 47 47 47 48 49 51 53 55 57 56 56 58 62 65 67 66

GFSFLT1_500_spd_024.txt.gz
Wind_Speed
23 24 24 24 24 23 23 22 21 20 20 20 19 18 17 16 19 20 22 24 26 26 26 25 25 25 23 23 23 22 23 24 24
26 25 26 25 25 24 23 22 21 20 20 19 17 17 15 17 21 25 26 27 29 31 30 30 28 27 26 26 26 25 24 25 27
24 25 26 26 25 24 23 21 20 19 19 19 18 17 18 20 23 26 25 25 24 25 28 31 30 28 26 26 27 26 27 27 26
23 22 23 24 24 23 22 21 20 21 20 20 20 20 22 23 25 26 26 25 23 22 22 24 27 27 27 27 27 27 28 29 29
22 22 21 22 22 22 22 22 21 22 23 23 24 24 25 26 28 29 26 25 27 26 21 19 21 23 26 25 25 22 24 27 27
20 21 20 21 22 23 24 23 24 26 27 27 28 30 30 30 31 31 30 27 28 28 26 23 20 20 22 23 24 25 25 27 28
20 20 19 19 20 23 25 26 28 28 30 31 33 33 34 33 33 34 34 29 28 28 29 29 26 25 26 26 26 27 27 28 28
21 20 20 21 21 21 22 25 28 30 32 34 35 35 36 36 35 35 34 34 31 31 30 31 31 30 30 29 29 29 28 26 26
22 21 23 22 24 24 25 24 25 26 29 32 33 33 35 35 36 37 38 36 34 34 33 32 32 33 33 32 31 30 29 27 26
27 24 25 23 25 26 28 28 28 28 27 28 29 32 33 33 34 35 36 37 36 37 35 35 34 34 34 33 32 32 30 29 28
28 28 26 29 30 29 29 29 28 29 30 31 32 32 32 32 31 31 32 33 35 34 35 35 34 33 32 32 31 31 31 31 31
28 30 30 30 28 29 30 30 29 30 31 32 33 32 31 32 31 30 29 30 31 33 33 32 32 33 33 34 34 35 35 35 36
29 29 29 30 30 30 29 30 30 31 32 34 34 33 32 32 32 31 30 30 31 31 33 33 34 36 37 37 39 39 40 40 40
31 30 30 31 33 32 32 31 30 31 33 34 35 35 34 33 33 34 32 32 34 37 40 42 42 43 43 42 43 44 46 45 44
32 32 31 31 32 33 33 32 32 33 35 36 36 36 36 35 35 36 37 39 40 42 43 43 45 46 46 47 48 48 47 46 46
33 34 35 34 34 34 35 36 36 37 37 37 37 37 37 38 37 37 39 41 43 45 45 47 48 49 48 48 49 49 49 49 49
31 32 32 31 33 36 38 38 37 37 38 38 37 37 38 39 40 40 40 41 44 46 47 49 50 51 52 51 50 50 51 52 52
35 33 33 31 31 34 36 36 37 38 37 37 38 39 40 40 40 42 43 46 47 48 49 49 49 48 49 49 49 50 52 55 57
37 36 36 35 34 34 35 34 35 37 38 37 38 39 40 41 41 43 45 46 47 47 48 48 48 49 50 52 53 55 56 58 58
42 39 37 37 38 36 34 35 35 37 38 39 39 40 40 42 43 44 45 45 46 48 50 52 52 53 54 55 55 56 56 57 59

GFSFLT1_500_spd_030.txt.gz
Wind_Speed
19 19 18 19 20 20 20 20 20 21 22 22 22 22 22 22 20 19 18 17 19 20 20 21 21 22 22 25 25 24 24 24 22
20 21 21 21 21 21 22 21 21 21 21 22 22 22 22 22 20 19 19 19 22 22 21 21 22 23 22 21 23 24 24 23 23
17 18 19 21 20 20 21 20 20 20 20 21 22 22 21 22 21 22 21 21 24 25 24 24 23 23 23 22 21 20 22 22 23
15 15 16 17 18 18 19 20 20 19 19 20 21 22 22 23 24 24 25 25 27 28 29 28 26 26 25 23 21 19 20 21 20
15 16 16 16 16 17 19 19 20 21 21 22 22 23 24 26 27 28 29 30 31 32 32 31 30 29 27 25 24 22 20 20 19
16 17 18 18 18 18 18 19 19 22 23 24 24 25 26 29 31 32 33 34 35 36 36 35 32 30 29 27 27 26 26 24 24
19 19 18 18 18 19 21 21 18 19 19 21 23 25 28 31 32 35 36 37 37 38 37 37 36 34 31 29 28 28 28 28 28
21 21 20 20 21 22 23 23 23 22 21 22 22 23 25 27 28 30 31 32 32 33 34 35 36 36 36 32 32 31 29 29 31
25 24 24 23 23 24 24 24 24 24 24 25 26 27 27 29 29 29 30 31 33 34 33 32 31 30 31 32 33 31 30 31 32
28 28 27 27 26 26 25 24 24 26 27 27 27 27 28 29 30 31 31 33 32 31 31 30 28 27 27 28 29 29 29 30 31
29 29 30 29 28 27 26 24 25 25 25 25 26 27 28 29 30 32 33 33 33 31 30 30 29 28 28 28 28 28 27 28 29
30 30 30 30 29 28 28 26 26 25 25 27 28 29 31 31 31 31 32 33 33 32 31 30 30 30 29 28 28 28 30 32 34
30 30 31 30 30 28 29 29 28 28 28 31 31 32 33 31 31 31 31 31 31 32 32 31 31 33 33 33 34 37 39 40 40
30 31 32 32 31 29 31 30 30 31 32 32 33 35 33 34 35 36 36 34 33 32 32 32 32 33 35 38 40 40 41 41 42
32 32 33 34 32 33 33 33 34 34 35 35 35 35 35 36 36 36 36 37 35 34 33 33 34 35 36 37 39 40 40 41 42
35 33 32 33 33 34 34 35 33 34 34 33 33 33 33 33 33 33 33 34 35 34 34 35 36 37 38 39 40 41 42 43 43
37 37 37 37 37 34 34 33 32 34 35 35 35 35 34 33 33 33 34 35 35 36 37 37 37 38 38 39 40 42 43 44 45
42 41 42 43 41 38 36 36 37 37 38 38 37 37 35 35 35 35 36 37 38 40 40 40 40 40 40 40 40 41 43 45 46
47 45 47 45 44 41 39 40 37 38 39 39 40 39 38 38 37 39 38 38 39 41 41 41 41 42 42 43 43 44 46 48 49
47 47 50 48 47 46 43 43 44 42 43 42 41 42 42 42 41 40 40 40 40 42 44 44 44 44 44 46 48 49 50 51 53

GFSFLT1_500_spd_033.txt.gz
Wind_Speed
18 18 18 17 16 16 17 17 18 19 19 20 21 21 22 22 21 21 20 19 18 17 18 18 19 19 20 20 20 19 20 22 22
18 19 18 18 18 18 18 18 18 19 20 20 20 21 21 22 21 20 20 20 19 19 19 21 21 21 21 21 21 20 20 20 21
17 17 17 17 17 18 17 18 19 19 19 20 21 20 21 21 21 21 21 22 22 22 22 23 25 25 24 22 22 21 20 19 19
16 16 15 15 14 16 16 17 18 18 19 20 20 21 22 23 23 23 24 25 26 26 26 27 29 29 28 26 23 22 21 19 18
17 16 16 16 16 16 17 17 17 18 19 20 21 21 22 24 25 26 28 29 30 30 31 31 32 32 30 29 26 24 23 22 21
19 18 18 18 18 18 18 18 18 19 20 20 20 21 22 24 26 28 30 32 33 34 34 34 35 33 32 31 29 28 26 24 24
21 20 20 21 20 20 19 20 20 21 21 21 20 21 21 22 23 25 28 29 31 31 31 30 29 30 31 31 31 30 29 26 26
22 22 21 22 22 23 23 22 22 22 23 22 22 22 23 24 26 27 28 29 29 29 29 31 31 31 30 29 28 29 29 30 29
26 25 25 24 25 25 24 24 24 23 24 24 24 25 26 27 27 28 29 29 30 30 31 31 29 29 27 27 26 26 26 28 29
28 28 28 28 28 27 27 27 25 24 24 25 25 24 24 25 24 25 27 28 29 30 30 30 30 28 27 26 27 27 27 27 27
30 30 30 30 30 29 28 29 27 26 26 25 25 24 24 27 28 30 30 31 31 30 30 30 29 28 27 27 28 28 27 27 27
31 30 31 31 31 30 28 28 28 27 27 27 27 28 29 30 30 33 29 29 29 29 28 28 29 29 28 28 29 30 31 32 32
32 29 30 32 32 31 30 29 30 29 29 29 29 31 31 30 31 29 30 32 34 35 32 32 30 30 30 29 28 31 34 36 38
33 32 32 32 33 33 32 31 32 30 31 30 31 31 31 30 28 29 29 30 32 33 33 31 31 31 31 31 31 32 33 35 36
35 34 34 34 33 34 33 33 33 32 32 31 31 31 29 29 28 28 27 27 27 27 27 28 30 30 30 31 32 33 33 35 36
39 37 37 34 34 35 35 33 35 33 32 31 31 31 31 31 32 31 30 29 29 28 29 30 32 32 33 34 33 33 34 35 36
41 41 40 39 38 38 38 37 35 33 34 33 34 32 33 34 34 35 34 33 32 31 31 32 32 34 34 34 35 36 37 37 38
46 45 43 43 43 42 43 41 39 38 37 37 37 35 35 37 37 38 38 37 36 35 34 35 35 34 35 36 37 37 38 39 41
50 49 47 47 47 46 46 45 42 41 41 40 38 38 37 38 39 39 40 40 39 39 38 39 39 38 39 39 39 40 41 42 44
53 53 51 49 51 51 49 49 46 45 48 46 43 42 44 44 44 44 43 42 42 42 42 43 43 42 44 44 44 44 44 45 48

GFSFLT1_500_spd_036.txt.gz
Wind_Speed
21 22 22 22 22 20 20 20 19 19 19 19 19 20 21 20 20 21 22 22 21 19 19 19 19 19 19 18 18 18 18 17 18
22 22 22 22 21 21 21 21 21 20 20 20 20 19 20 21 21 22 22 21 21 21 20 21 21 22 23 23 22 22 20 20 18
19 20 20 20 20 20 20 20 20 21 20 19 20 20 20 20 21 22 23 23 22 23 24 25 25 25 25 25 25 24 23 21 20
19 19 19 19 19 19 20 19 18 18 18 18 19 20 19 21 22 22 23 25 25 26 27 28 29 29 29 28 27 27 25 23 22
20 19 18 18 17 17 17 18 19 19 20 21 20 21 21 21 22 23 24 26 27 29 31 32 33 33 32 31 30 28 28 27 26
21 21 20 20 19 19 20 20 19 20 20 20 21 20 20 19 20 22 23 26 28 29 31 33 33 33 30 27 28 28 28 29 27
22 23 24 23 22 21 21 21 21 21 22 22 21 22 22 21 22 23 24 25 26 27 28 28 28 29 29 30 29 28 27 27 28
24 24 25 25 25 25 24 24 23 23 22 22 22 23 23 23 24 26 26 27 28 29 30 30 30 30 31 29 28 27 25 25 26
24 25 25 26 27 27 27 27 27 26 25 23 23 23 23 25 26 25 25 24 25 27 27 28 29 30 29 28 27 26 25 26 25
27 27 27 27 28 28 28 30 30 29 28 26 25 24 24 24 25 25 26 29 30 31 29 29 30 29 28 27 27 26 26 26 27
29 29 28 29 30 30 31 31 31 31 30 28 28 26 25 26 26 28 30 31 31 28 27 27 26 26 26 27 28 28 27 27 27
30 31 30 31 32 33 33 32 32 31 30 29 28 28 28 28 29 30 28 29 26 27 29 31 33 32 31 28 27 29 28 28 29
34 34 33 33 34 35 35 32 32 33 31 31 30 29 30 30 29 27 26 24 24 25 26 26 28 29 28 28 29 30 30 30 31
38 37 37 37 36 37 36 34 34 34 33 33 32 31 31 31 29 27 26 25 25 25 24 24 24 24 24 25 27 29 30 31 32
41 40 40 40 40 39 39 38 36 35 35 35 34 33 32 31 29 28 28 29 28 28 28 27 26 25 25 27 29 31 32 33 33
45 43 43 43 43 42 41 39 39 37 37 37 35 34 31 31 31 31 31 31 32 32 32 32 31 30 29 29 30 31 32 33 34
50 48 48 48 46 45 44 42 42 40 40 38 38 35 34 33 35 35 34 34 35 35 36 36 35 34 33 33 32 33 34 35 36
52 53 53 52 51 48 47 46 46 45 44 42 42 40 39 38 37 37 36 36 37 38 39 39 39 38 37 37 36 36 38 38 38
55 54 56 56 54 52 49 49 49 49 48 46 44 46 44 41 40 38 38 39 41 42 43 44 43 43 42 42 42 41 42 42 41
59 57 56 58 56 55 52 52 53 53 53 50 49 50 48 46 48 44 42 42 44 43 44 46 47 47 46 46 45 45 45 46 45

GFSFLT1_500_spd_039.txt.gz
Wind_Speed
20 21 22 22 22 23 23 23 22 21 20 20 18 19 20 20 19 20 20 20 21 20 19 19 19 19 19 19 20 20 20 20 19
22 22 22 23 23 23 23 22 22 22 21 20 20 19 19 19 19 19 20 21 21 21 21 23 23 22 22 23 25 24 23 22 20
21 21 20 20 21 21 21 21 21 21 21 21 20 19 18 19 19 19 19 21 21 22 23 24 25 26 27 28 28 28 27 25 23
19 20 20 20 20 20 20 20 21 21 21 21 21 20 20 20 20 20 21 21 22 22 25 26 27 29 30 31 31 30 28 27 25
20 20 20 20 20 20 20 20 20 21 22 22 24 23 22 21 21 21 21 21 22 23 25 27 28 29 30 30 30 26 26 26 26
22 22 21 22 21 21 21 21 22 22 22 21 21 21 20 20 20 21 21 21 22 23 25 26 27 28 28 27 27 27 27 27 27
24 24 24 24 24 23 23 23 24 23 23 23 22 22 22 22 21 22 23 23 25 26 26 27 26 27 28 27 27 27 26 25 24
26 25 24 24 25 25 24 25 26 26 25 25 24 24 23 23 22 23 24 25 25 24 23 24 25 25 26 26 26 25 25 24 24
27 26 26 25 26 26 26 27 28 28 28 27 27 27 26 25 23 24 23 23 24 26 29 30 30 29 28 27 26 24 24 23 23
29 28 27 26 27 28 28 29 30 30 30 30 29 29 28 26 25 24 23 25 27 29 30 27 25 25 25 25 25 24 23 23 23
30 29 28 29 29 31 30 31 32 31 31 32 31 31 29 28 28 25 27 27 29 27 26 22 23 24 26 26 27 25 23 23 23
32 32 31 32 32 32 33 34 33 32 33 33 33 32 31 30 30 29 28 30 28 25 22 21 21 21 22 22 22 21 24 25 25
37 35 34 35 35 35 35 36 37 35 35 35 34 34 33 32 31 31 30 30 27 24 22 22 21 22 22 21 22 21 22 24 26
40 39 40 39 38 38 38 38 39 39 37 37 36 36 35 34 33 32 32 31 27 27 26 25 25 25 25 24 24 24 25 26 28
43 43 44 44 43 42 42 43 43 42 39 39 38 37 37 36 35 34 33 32 30 29 30 29 28 28 29 28 28 28 28 28 29
44 44 46 47 47 46 46 46 46 45 45 43 41 40 38 37 35 36 35 34 33 32 32 32 31 31 32 32 33 32 31 31 32
48 47 47 48 50 50 50 51 51 48 48 47 45 43 42 38 38 38 37 37 37 36 36 34 33 33 34 35 35 36 36 36 35
51 52 51 52 51 52 54 54 54 54 52 50 49 48 44 43 43 42 42 42 42 41 38 37 37 38 38 39 39 40 41 40 39
54 54 54 54 54 53 55 56 54 54 51 52 52 51 50 47 45 46 47 49 47 46 42 41 40 41 40 40 41 44 45 44 43
56 57 57 55 56 56 57 57 58 57 57 56 55 56 54 52 50 49 52 53 50 41 41 42 42 40 42 44 43 42 44 46 47

GFSFLT1_500_spd_042.txt.gz
Wind_Speed
19 20 20 20 20 20 20 20 20 20 19 19 20 18 19 18 18 17 17 17 17 18 19 19 18 19 19 21 21 22 23 22 22
21 20 20 20 20 20 21 21 21 20 19 20 20 19 18 17 17 17 17 16 16 18 18 19 19 20 22 23 24 25 25 25 24
21 21 20 20 20 20 20 21 22 22 21 21 21 20 18 17 16 17 16 17 17 19 19 20 21 22 23 24 25 26 26 26 26
21 21 20 20 20 20 20 20 20 21 22 22 22 22 22 22 21 20 19 19 19 20 19 20 21 23 24 25 26 25 25 24 22
23 22 21 20 20 19 19 19 20 21 22 23 23 23 23 22 21 20 20 18 18 19 20 21 22 23 24 24 25 25 24 23 23
24 24 23 22 22 21 20 21 22 22 23 22 22 23 22 21 21 21 21 20 20 21 22 24 24 24 24 24 23 23 23 21 21
23 23 24 24 24 22 22 22 23 23 24 23 23 23 23 22 21 21 23 22 22 23 22 22 23 23 23 24 22 22 23 22 20
23 24 25 24 24 25 24 24 24 26 25 25 25 25 25 25 22 23 24 24 24 23 23 23 25 26 28 27 26 25 23 22 20
25 25 25 24 26 25 26 26 26 27 27 26 26 26 27 27 23 26 25 26 24 24 24 26 27 25 23 21 20 20 20 20 20
25 26 25 27 27 28 28 29 29 29 29 28 28 28 28 28 25 26 26 27 26 26 27 27 24 20 19 18 19 19 19 18 18
28 28 26 28 29 30 30 31 31 32 31 31 32 31 31 30 28 25 28 27 27 27 28 27 21 18 17 16 16 17 16 17 18
29 30 30 29 33 32 32 32 32 33 33 32 32 32 33 33 33 28 29 30 29 29 29 26 21 19 17 17 17 18 17 17 17
33 33 32 33 36 36 34 34 35 36 36 36 35 34 34 34 35 32 29 31 31 31 30 27 24 23 22 20 20 20 21 20 20
37 37 37 36 37 38 38 37 39 39 40 40 38 36 37 37 35 35 34 31 33 33 31 29 28 28 27 26 25 25 24 25 24
40 40 40 39 38 39 40 42 42 43 43 44 43 41 41 40 38 37 37 36 33 33 33 32 32 31 30 30 29 29 29 29 29
42 42 43 43 43 41 43 43 44 46 47 47 46 46 44 42 40 40 39 38 37 33 34 36 35 35 34 32 31 30 30 31 31
45 44 45 45 45 47 46 47 48 49 50 51 51 50 48 45 45 43 42 42 40 38 38 39 40 40 38 36 34 33 35 34 34
48 49 47 48 48 49 49 49 49 48 50 51 52 53 50 49 48 47 46 45 44 43 42 43 43 44 43 42 38 38 39 38 38
52 52 52 51 50 52 50 50 52 53 53 55 53 53 53 49 49 49 49 49 48 46 47 47 49 50 53 47 42 44 40 40 41
51 53 54 55 55 53 54 56 55 54 56 56 55 56 55 54 54 54 52 53 51 50 48 50 48 43 43 39 44 46 40 37 39

GFSFLT1_500_spd_045.txt.gz
Wind_Speed
18 19 20 20 19 18 18 18 19 20 20 20 20 20 20 19 18 17 17 17 17 16 15 15 16 17 18 19 20 20 21 22 21
20 20 19 19 19 19 18 19 19 20 20 21 20 20 20 19 17 16 16 16 17 16 17 18 18 18 19 20 21 22 23 23 22
20 19 19 18 19 19 19 19 19 19 20 20 20 20 19 19 19 19 19 18 19 19 18 17 18 18 19 20 21 21 22 23 22
18 19 19 19 19 19 19 20 20 20 19 19 20 21 22 21 22 20 19 19 20 19 18 17 18 19 20 21 23 22 23 23 21
19 18 19 19 19 20 20 20 20 19 19 20 20 21 21 22 21 21 20 19 19 19 20 19 20 22 23 23 23 22 21 20 19
20 20 20 20 20 21 21 21 21 22 21 22 22 22 21 21 21 19 19 20 20 20 22 23 23 23 23 23 22 22 22 20 18
19 19 21 22 22 23 22 22 23 23 23 24 24 24 23 21 23 22 20 20 21 21 22 23 24 24 25 26 26 25 22 23 21
21 21 21 22 23 23 23 23 24 25 26 26 26 26 25 23 25 25 24 23 23 23 23 23 24 25 25 25 22 21 20 19 18
23 24 23 23 23 24 25 25 26 27 27 28 28 28 26 26 25 27 25 26 25 24 25 25 25 25 24 22 18 17 16 16 17
23 24 23 24 25 25 25 26 26 28 29 29 28 29 28 27 26 27 28 28 28 27 26 27 26 26 22 19 17 15 14 14 15
23 23 24 24 27 27 27 28 28 29 31 31 30 30 30 29 28 27 29 28 29 29 28 29 28 26 22 19 18 16 15 15 15
26 27 26 26 27 30 30 31 32 31 32 33 33 33 32 31 31 30 29 30 30 30 30 29 29 28 24 23 21 20 19 18 17
30 30 29 31 31 32 32 32 32 34 36 36 37 37 36 36 34 32 31 32 32 33 32 31 31 29 27 27 26 25 24 24 23
34 33 32 33 35 36 37 38 37 35 38 39 39 39 39 38 38 36 35 33 34 35 34 33 32 32 30 30 31 31 30 29 28
35 37 38 37 37 38 40 41 41 41 41 42 42 42 42 42 40 39 37 37 35 37 36 36 36 35 34 33 34 34 33 33 32
37 39 41 42 41 41 42 43 42 43 46 47 47 47 47 46 45 43 42 39 39 39 39 38 38 38 37 36 37 37 35 36 35
41 41 42 44 43 43 44 45 46 47 47 48 49 49 49 46 47 46 44 45 43 42 42 42 41 41 41 40 39 37 42 39 40
45 44 44 45 45 46 46 47 47 49 49 49 51 51 50 51 50 48 47 46 45 44 44 45 47 47 47 44 45 48 50 50 46
49 48 46 48 49 51 52 52 50 52 50 52 52 55 56 55 53 50 48 48 49 49 47 48 48 45 47 50 46 46 50 48 51
48 50 51 50 51 51 52 54 53 53 54 55 56 58 56 58 57 55 52 51 51 52 50 49 50 51 47 45 45 48 47 43 46

GFSFLT1_500_spd_048.txt.gz
Wind_Speed
17 17 17 17 16 16 16 16 16 16 17 18 18 18 18 18 20 21 20 19 19 18 19 17 17 19 19 17 18 19 20 20 20
18 18 16 16 16 16 16 16 17 17 18 19 19 20 20 19 18 18 20 20 20 19 19 20 21 20 18 18 18 20 21 21 22
19 17 16 15 15 16 16 16 17 18 20 21 21 20 21 20 21 21 21 21 21 20 20 21 19 18 19 19 19 20 22 23 25
17 16 15 15 16 17 16 17 18 19 20 21 21 21 22 21 21 21 21 22 21 20 18 19 19 19 19 21 23 24 24 25 24
17 15 16 16 17 18 18 18 19 19 20 21 22 22 23 23 23 22 21 21 21 20 20 20 20 21 22 22 23 24 24 24 24
18 19 19 18 19 19 19 20 21 21 22 22 23 23 23 23 22 23 23 23 22 22 22 21 21 22 23 23 23 23 24 24 24
18 19 20 21 21 21 22 23 23 23 23 24 25 25 25 25 26 25 24 25 23 23 23 23 22 23 24 25 24 25 23 22 21
19 20 20 23 23 24 25 25 24 24 24 26 27 27 26 26 27 28 28 27 26 25 24 23 24 25 26 26 25 23 22 20 18
21 21 22 24 25 26 26 27 26 26 26 26 27 27 27 27 27 28 29 28 26 26 25 25 25 25 27 26 24 21 21 19 18
23 24 23 24 27 28 27 28 28 29 29 30 30 30 29 28 28 28 29 29 28 28 26 26 26 26 26 26 24 22 21 20 19
24 26 27 27 28 30 28 29 29 29 30 32 34 34 32 32 32 30 28 30 31 29 29 30 28 28 28 27 25 24 23 22 20
27 27 28 29 29 30 31 31 31 32 32 34 36 36 36 35 34 34 32 31 31 31 30 30 31 30 30 29 28 27 26 25 24
29 29 30 31 31 31 32 34 34 35 36 37 39 39 39 39 39 36 36 35 34 33 32 32 32 33 34 33 31 30 30 29 29
33 32 31 32 33 34 35 37 37 37 38 40 42 42 43 43 43 42 41 39 39 37 36 35 34 36 36 37 35 33 33 33 33
36 36 34 36 36 37 39 39 40 40 41 42 44 44 44 45 46 45 45 44 42 42 41 39 37 37 37 38 39 38 36 36 36
37 37 37 38 40 42 43 43 43 43 44 46 45 46 47 47 47 47 46 45 45 45 44 44 42 41 40 40 40 41 41 40 39
39 39 39 41 43 44 45 45 45 45 46 46 48 47 48 47 50 52 51 48 48 45 43 44 45 46 44 45 45 44 44 44 44
42 43 43 43 44 43 46 47 48 48 48 49 51 51 51 53 53 54 55 54 54 50 47 47 48 47 46 47 45 43 44 50 51
46 48 48 47 44 46 48 49 48 49 48 50 51 52 52 53 55 56 58 58 58 55 52 52 51 50 50 48 49 50 48 44 44
46 48 49 49 49 49 49 49 48 49 50 51 51 46 56 57 58 58 60 63 62 61 57 53 51 52 51 51 49 50 51 50 48

GFSFLT1_500_spd_051.txt.gz
Wind_Speed
16 17 17 17 16 15 14 13 14 14 15 17 18 19 21 22 22 21 21 20 20 20 19 20 19 20 22 22 21 20 20 20 20
18 18 18 17 16 15 14 14 15 15 16 18 19 19 20 21 22 23 22 22 21 22 21 20 21 22 22 20 20 20 20 20 21
19 18 18 17 16 16 16 16 17 17 18 19 20 20 21 21 21 22 22 23 22 22 21 21 20 21 20 20 20 21 22 23 22
19 18 18 17 17 17 17 18 18 19 20 20 22 22 23 23 23 23 23 23 22 22 21 21 21 21 22 22 21 22 22 22 22
19 18 18 18 18 18 18 19 20 20 21 21 22 24 25 25 25 25 25 25 24 23 23 23 23 22 22 22 22 22 23 23 23
19 19 19 18 19 19 20 21 21 21 21 23 23 25 26 26 26 26 26 26 27 27 26 25 25 25 23 21 22 22 24 24 24
19 20 20 21 22 23 23 24 24 24 24 25 26 26 26 27 27 26 27 26 26 27 27 27 26 25 25 24 23 23 24 23 22
20 20 21 22 23 23 24 25 27 28 28 28 29 29 28 29 29 29 28 27 27 27 27 27 26 26 25 25 25 23 23 23 21
22 22 22 24 25 24 25 26 28 29 30 30 31 31 31 30 32 31 30 30 29 29 28 27 27 27 27 27 27 26 24 24 22
24 25 25 25 25 25 27 28 28 30 31 31 33 34 34 33 33 33 33 32 33 32 30 29 28 28 29 29 29 28 26 25 24
26 26 26 27 26 27 29 30 31 31 32 32 34 36 36 35 35 36 35 35 36 36 34 33 31 30 30 31 31 30 29 27 26
27 28 28 30 29 31 32 34 34 34 34 35 36 37 38 38 38 38 38 39 39 39 38 36 34 32 32 31 32 33 33 30 29
29 29 30 32 32 33 34 36 37 37 37 38 38 39 41 41 40 40 42 42 41 41 41 41 39 38 37 35 34 35 35 34 32
32 31 32 34 35 35 36 37 38 40 40 40 42 42 43 43 43 44 44 44 45 44 44 44 43 43 42 40 39 37 37 37 36
34 34 34 36 36 36 39 39 41 42 43 43 43 43 43 45 45 46 47 46 47 47 46 45 44 45 45 44 43 43 41 40 40
36 36 38 39 38 39 41 43 44 45 45 45 43 43 45 45 47 49 50 50 50 50 51 50 48 45 43 44 46 46 45 44 43
39 39 39 40 41 42 44 46 47 47 47 47 49 47 47 46 48 50 52 52 52 52 52 52 52 52 46 47 48 48 47 48 46
40 40 41 41 43 45 46 47 47 48 48 49 50 50 49 48 48 50 50 53 50 54 54 56 56 54 51 48 48 48 49 49 49
42 41 42 45 47 49 48 47 47 49 49 49 48 49 50 50 49 49 51 51 51 53 54 55 57 59 60 58 54 51 53 49 52
44 45 47 49 51 51 49 48 50 49 48 48 50 51 52 51 51 47 48 52 54 55 58 60 61 60 64 65 59 54 53 61 52

GFSFLT1_500_spd_054.txt.gz
Wind_Speed
15 15 16 16 16 16 16 16 15 16 16 17 18 19 19 20 20 20 20 21 20 20 21 22 22 21 21 22 23 21 20 20 19
16 17 17 16 16 16 15 15 16 17 18 19 20 21 22 22 23 23 23 23 23 22 22 21 22 21 21 20 20 19 20 19 20
18 18 17 16 16 16 16 16 16 18 19 20 21 21 22 23 24 24 24 24 24 24 24 23 22 22 22 21 20 20 21 21 21
18 18 18 17 16 16 16 17 17 18 20 21 21 21 22 23 24 24 25 24 24 24 24 24 24 24 25 24 24 22 21 21 20
19 19 18 17 17 17 17 18 19 20 21 22 23 24 24 25 26 27 27 26 26 26 26 25 25 25 25 25 25 26 23 21 21
19 20 20 19 19 18 19 19 19 20 21 22 23 24 26 27 28 28 28 28 29 28 27 27 27 27 25 24 24 23 24 23 23
20 20 20 22 22 22 22 22 23 23 23 24 24 26 27 28 28 29 29 29 29 30 29 28 27 27 26 26 24 25 24 24 24
22 21 22 23 23 23 23 24 24 24 24 26 28 29 30 30 30 31 31 31 31 30 30 31 30 28 28 28 27 26 26 25 25
23 23 22 23 23 22 23 24 25 25 27 28 30 32 32 32 33 32 33 33 34 33 33 32 31 30 30 29 29 29 29 29 27
25 24 24 24 24 24 25 26 27 28 28 31 33 34 35 35 34 33 34 35 36 36 36 36 36 35 33 32 31 30 30 30 30
26 25 25 26 25 26 27 28 28 29 30 33 34 35 36 37 37 36 36 38 38 37 37 38 39 39 38 36 34 34 33 31 32
27 27 28 29 28 29 30 30 31 32 32 34 36 37 38 39 40 40 40 40 40 40 41 40 40 41 41 41 39 38 38 37 35
28 29 30 31 31 31 32 32 33 34 34 36 39 40 41 42 41 42 42 41 41 42 41 43 43 43 43 43 42 41 40 40 39
30 30 32 32 33 33 33 34 35 36 38 40 41 42 43 44 43 43 41 43 44 44 45 45 46 47 43 42 44 43 41 41 42
32 31 33 35 36 35 36 36 38 39 41 43 43 45 45 44 42 43 45 47 46 48 47 47 48 46 46 46 45 45 44 41 43
34 35 36 38 37 39 39 38 40 41 44 46 45 46 45 44 42 43 44 46 47 46 47 47 48 49 47 47 46 47 46 46 47
38 39 39 41 41 40 41 42 42 44 46 48 49 46 44 44 45 45 45 45 46 48 50 49 47 48 50 50 49 48 47 46 48
41 40 43 44 43 43 43 44 45 47 47 48 49 49 48 48 45 45 45 46 47 48 48 47 48 50 50 51 52 51 51 50 49
43 45 45 45 45 43 43 47 49 50 48 47 48 49 50 48 46 47 46 43 43 43 44 47 49 50 51 52 56 59 56 56 49
47 48 47 47 44 43 46 50 51 49 48 47 47 47 47 46 47 45 41 41 41 43 46 48 48 50 52 55 58 57 61 53 57

GFSFLT1_500_spd_060.txt.gz
Wind_Speed
6 8 9 9 9 11 11 11 12 12 12 12 14 15 16 17 18 19 21 22 22 23 23 24 24 25 25 25 25 24 22 22 22
7 7 9 10 11 11 11 12 12 13 13 14 14 15 16 18 19 21 22 22 23 23 23 24 24 25 25 25 25 24 24 23 23
8 9 10 10 12 12 12 12 13 14 14 15 16 16 17 19 20 21 22 22 23 24 24 25 25 25 26 26 26 26 25 25 24
9 10 11 11 12 13 13 14 15 15 16 16 17 18 18 19 20 21 22 23 24 25 25 25 26 26 26 26 26 27 27 26 25
13 12 12 12 13 13 14 15 16 17 17 18 19 19 19 20 22 23 24 26 27 28 28 27 27 27 27 27 27 27 27 27 26
14 14 14 14 14 15 16 17 17 18 19 20 19 19 20 21 22 23 25 26 28 29 29 30 30 29 29 29 28 28 27 27 27
13 14 15 15 16 17 17 17 18 19 19 20 21 21 21 23 24 25 26 26 28 30 30 30 30 31 31 31 30 30 30 28 27
15 15 16 16 16 17 18 18 19 20 21 22 22 23 24 26 27 28 28 28 29 30 32 32 33 33 33 32 32 32 31 30 29
18 18 18 18 18 19 19 20 20 21 22 24 24 25 27 29 30 30 30 30 30 31 33 34 34 33 32 33 33 31 30 30 29
20 20 20 21 20 21 22 22 23 23 24 26 27 29 30 31 32 32 33 33 34 35 35 35 35 33 32 33 33 33 34 33 32
22 23 23 23 23 23 24 24 25 26 26 28 30 31 32 33 34 34 35 36 37 38 38 36 35 35 36 37 36 36 35 35 34
25 25 26 25 25 26 26 26 27 28 29 31 32 33 34 36 36 35 37 38 39 40 39 37 37 36 36 36 36 36 35 35 34
27 28 29 28 28 28 29 29 28 30 31 33 35 36 37 38 38 38 40 42 42 41 39 37 38 38 37 36 36 36 36 36 36
30 31 32 31 30 31 31 31 30 32 33 35 38 39 40 40 39 40 42 43 42 41 39 39 39 38 38 37 37 36 36 35 33
33 33 33 34 33 33 33 33 34 35 36 40 42 43 42 41 42 43 44 43 42 42 41 41 40 40 39 37 35 34 30 32 36
36 35 35 36 36 36 35 35 36 38 40 46 44 44 43 41 43 45 46 44 42 41 41 41 40 39 37 34 33 32 33 36 37
39 37 37 38 38 38 38 40 42 44 45 46 47 45 43 41 43 47 47 45 44 42 41 40 39 37 34 34 33 35 37 37 38
42 41 40 40 40 40 41 44 46 47 47 48 49 47 42 42 45 46 45 43 42 43 42 40 37 35 35 34 36 38 36 37 36
44 43 43 43 43 43 46 47 47 47 48 48 47 44 43 47 48 45 43 42 42 40 39 37 35 35 35 37 38 38 36 37 37
47 46 45 45 45 47 48 48 48 48 47 45 41 43 47 47 48 43 44 44 41 38 37 35 36 37 38 39 38 37 36 37 38

GFSFLT1_500_spd_063.txt.gz
Wind_Speed
5 6 6 6 7 8 9 9 10 10 10 10 12 13 13 14 15 17 18 19 21 23 23 23 24 24 24 23 23 23 23 24 23
6 6 6 7 8 8 9 10 10 11 11 12 13 14 14 15 15 17 19 21 22 24 25 25 24 25 25 24 24 24 24 24 24
6 8 8 8 8 9 9 10 11 12 13 14 14 15 16 16 17 18 20 22 24 24 25 25 25 25 26 26 25 25 26 25 24
7 9 10 10 10 10 11 12 12 14 14 15 16 16 16 17 18 19 21 23 25 26 26 26 26 26 26 26 26 26 27 27 26
9 9 10 11 11 11 12 13 14 14 15 16 17 17 18 19 20 21 24 25 26 27 27 27 27 27 27 28 28 28 27 27 27
11 11 12 12 13 13 14 15 16 16 17 18 19 19 20 21 23 24 26 27 28 29 30 30 28 29 30 30 29 29 28 28 27
12 12 14 14 15 16 16 17 18 18 19 20 20 21 22 23 25 26 26 28 29 31 31 30 31 31 31 32 30 29 29 28 27
13 13 14 14 15 16 17 18 19 19 20 21 22 23 24 25 27 28 28 29 30 31 31 32 34 33 32 31 30 29 30 30 30
16 15 15 15 16 17 19 20 20 21 22 23 23 24 26 28 29 29 31 32 31 32 32 34 34 34 32 31 31 31 32 32 31
18 18 17 17 18 19 20 22 22 23 24 24 25 27 28 30 31 31 33 33 33 33 35 36 37 35 32 32 31 32 32 31 31
21 21 20 19 20 21 23 23 24 25 25 26 27 29 30 32 33 34 35 36 35 36 38 39 37 35 33 33 32 33 32 31 31
23 22 22 22 23 24 25 25 26 27 26 28 29 30 31 35 36 37 38 37 36 37 40 40 38 35 34 34 34 34 34 34 33
24 24 25 25 26 27 28 28 29 29 29 30 32 32 34 38 39 40 40 39 38 39 42 43 39 36 36 36 35 34 35 34 33
28 27 28 28 29 29 30 30 31 31 31 32 34 36 37 41 41 42 43 40 39 42 44 42 40 38 38 38 37 36 33 32 31
31 31 32 31 32 32 32 32 34 33 34 36 36 40 42 43 43 44 44 41 40 44 45 45 41 41 40 39 38 35 32 31 30
35 35 36 36 35 34 34 35 36 36 37 39 41 43 44 43 45 45 44 41 43 46 46 45 43 42 41 40 36 33 32 31 33
39 39 39 40 38 37 37 37 38 39 40 42 45 46 44 46 46 41 42 44 46 48 49 46 43 42 41 37 34 34 33 34 36
44 43 43 42 41 40 39 41 41 42 42 45 47 48 47 46 43 38 41 46 47 48 47 46 46 44 40 35 35 35 34 35 36
47 46 45 44 44 43 42 44 44 45 45 46 47 47 47 45 42 41 45 48 47 47 46 46 44 43 39 36 36 37 36 37 36
51 50 49 47 45 45 45 45 45 46 48 47 46 44 44 43 44 46 47 49 47 46 46 45 43 41 38 38 38 38 38 37 36

GFSFLT1_500_spd_066.txt.gz
Wind_Speed
3 4 5 5 5 4 5 5 6 6 7 8 9 10 11 12 13 14 15 17 19 20 22 23 23 23 22 22 22 22 22 23 23
4 4 5 5 5 5 6 6 7 7 8 10 11 12 12 13 14 14 16 18 20 21 22 24 24 23 23 23 23 23 23 24 24
5 5 5 5 6 7 7 8 8 10 10 11 12 13 13 13 15 16 18 20 21 21 23 24 26 26 25 24 25 25 25 25 25
6 5 5 6 7 7 8 9 10 11 11 12 12 13 14 14 15 17 19 21 23 24 24 25 27 26 25 26 26 26 27 26 25
7 6 6 7 7 8 9 11 11 11 12 12 13 15 16 17 18 20 22 23 24 25 26 26 26 27 28 28 28 28 27 26 25
9 8 8 7 8 10 10 12 12 13 14 15 16 17 18 19 20 23 25 26 28 27 27 26 27 29 30 30 30 28 26 25 24
11 10 10 10 10 12 13 14 14 15 16 17 18 19 20 21 22 24 26 27 28 29 29 27 29 31 32 32 30 28 27 27 27
14 12 11 11 11 12 14 15 16 16 17 19 20 21 21 22 23 26 27 27 30 31 29 28 30 32 34 34 31 29 28 29 29
15 14 13 13 13 14 14 15 17 18 19 19 21 21 22 24 25 27 28 30 32 32 31 30 31 33 34 34 32 30 30 30 30
17 16 15 15 15 15 16 16 18 19 20 21 22 22 23 25 26 28 32 33 34 34 32 31 33 35 36 35 32 31 32 32 32
20 19 18 18 17 17 18 19 20 20 22 23 23 24 26 27 28 30 34 36 36 36 35 34 33 35 37 37 34 33 34 33 33
23 22 21 19 19 20 21 21 22 22 23 25 25 26 28 29 30 32 37 37 38 38 38 35 35 38 38 38 34 34 35 36 35
27 25 24 22 22 23 24 24 25 26 26 27 27 28 29 31 33 37 38 39 39 38 39 35 38 40 41 39 35 35 36 37 37
29 28 27 26 25 26 27 27 28 28 29 29 30 31 31 34 36 39 39 41 42 39 37 37 40 42 43 38 37 37 37 35 35
32 31 30 30 29 29 30 30 31 31 31 32 32 34 34 36 38 40 40 42 44 40 36 38 42 44 43 39 38 38 37 35 33
35 34 33 34 33 33 33 34 33 33 34 34 34 35 37 39 40 39 40 42 43 38 39 42 43 45 42 39 40 39 37 33 33
38 36 37 38 37 37 38 38 37 36 36 37 38 37 37 40 43 41 38 39 41 40 42 46 47 46 42 39 40 38 36 32 33
45 43 43 43 43 43 42 41 42 40 38 40 41 41 41 41 40 39 37 38 39 41 44 48 48 45 42 41 40 38 34 34 35
42 45 48 47 48 49 46 45 45 43 43 42 42 43 44 43 41 40 42 41 42 44 47 47 45 44 44 42 40 38 34 36 35
50 51 52 53 53 51 51 49 46 45 44 44 44 44 44 42 42 42 40 43 44 47 49 44 44 43 42 41 39 35 36 37 37

GFSFLT1_500_spd_069.txt.gz
Wind_Speed
5 4 4 3 3 3 3 3 3 4 5 5 6 7 8 9 9 10 12 14 17 18 19 20 21 23 23 22 21 22 23 23 23
6 5 5 4 4 4 3 3 4 5 6 7 7 8 9 10 11 11 13 15 18 19 21 21 22 22 22 23 23 24 24 24 23
7 7 6 5 5 4 4 4 5 6 7 8 8 9 10 11 12 12 14 17 18 20 21 22 22 22 22 25 25 25 25 24 23
9 8 7 7 6 5 5 5 6 6 7 8 9 10 11 12 13 14 16 19 21 22 23 23 22 21 24 26 27 27 26 25 23
11 10 8 7 6 6 5 5 6 7 7 8 9 10 11 13 14 16 18 21 22 24 24 25 24 23 24 27 29 29 28 26 24
12 11 9 9 7 7 7 7 6 7 8 10 11 12 14 16 16 18 20 23 24 24 26 26 25 25 27 29 30 32 31 29 26
13 12 11 10 9 9 9 8 8 8 10 11 12 13 15 16 17 19 21 22 24 26 29 28 27 26 28 30 32 34 33 30 28
15 14 13 13 12 12 12 11 10 10 11 12 13 14 15 17 19 21 21 23 27 28 29 28 28 28 28 30 33 35 33 31 30
17 16 15 14 14 15 14 13 13 13 13 15 16 17 17 17 19 22 22 25 28 30 30 30 30 29 29 31 33 35 35 32 31
19 18 17 17 17 17 16 15 16 16 16 16 18 18 19 20 22 24 24 27 30 31 32 32 32 32 31 32 35 36 35 33 33
21 19 19 19 19 19 18 17 18 18 19 19 20 22 22 23 24 24 25 28 31 33 33 33 33 31 29 33 36 38 36 33 33
23 22 22 21 22 21 20 20 20 20 21 22 22 23 23 25 26 27 28 31 33 34 35 35 34 33 30 33 36 38 35 34 33
27 26 25 24 24 24 23 22 23 22 23 24 24 25 25 26 28 30 30 32 32 34 35 37 37 34 33 35 37 39 36 35 35
30 29 28 27 25 26 26 26 26 25 25 27 26 28 29 29 30 31 32 34 34 35 33 33 34 32 36 37 39 38 36 36 37
33 32 31 30 29 29 30 29 28 29 29 30 30 31 31 32 33 34 35 36 38 36 33 35 34 33 37 39 40 37 35 37 37
33 33 35 35 34 33 33 33 33 32 34 34 34 34 34 34 37 37 36 37 38 36 35 35 35 37 39 42 41 37 36 36 36
38 39 37 38 37 36 37 37 38 38 39 39 39 37 36 36 37 39 39 40 38 36 36 36 37 38 39 41 39 37 36 36 35
35 33 37 49 47 41 45 43 42 43 44 46 46 46 42 40 38 38 39 38 36 37 35 36 38 40 39 39 38 38 36 35 32
38 38 38 38 39 45 47 48 47 48 50 48 48 45 44 44 40 41 40 39 37 36 37 38 39 40 39 39 37 37 37 34 31
42 43 43 42 43 46 51 51 52 52 51 50 45 45 47 45 44 42 41 41 39 39 38 41 41 40 39 40 38 38 36 34 33

GFSFLT1_500_spd_072.txt.gz
Wind_Speed
9 8 6 6 6 6 6 6 4 4 4 5 5 5 6 6 6 7 8 11 13 15 17 18 18 19 19 20 23 24 25 25 25
10 9 7 7 7 7 7 7 6 5 5 6 7 6 6 6 7 7 9 11 14 16 18 19 20 19 20 22 23 25 27 27 26
11 10 9 9 9 9 9 8 7 6 6 5 6 6 7 7 8 8 9 12 15 17 19 19 21 20 20 23 24 26 28 29 29
13 11 10 10 10 10 10 9 8 8 7 6 6 7 7 8 8 9 9 12 15 18 18 20 21 21 21 23 25 27 30 32 30
15 13 12 11 11 10 10 9 9 8 8 7 7 7 8 9 9 10 11 13 15 18 19 21 22 22 22 24 26 27 29 31 30
16 15 13 12 11 11 10 10 9 8 8 9 9 9 10 11 12 14 15 17 18 20 21 22 23 23 24 25 26 27 30 31 32
18 16 15 13 12 12 12 11 10 9 10 10 10 11 12 13 13 15 17 19 21 23 24 24 25 25 26 26 27 28 31 33 34
19 17 16 15 14 13 13 13 12 11 11 12 12 13 14 15 16 17 20 21 22 23 26 26 26 26 27 27 28 28 31 33 34
20 19 17 16 16 15 15 15 14 14 14 14 15 15 16 17 19 20 22 23 24 25 26 27 28 29 28 29 28 29 31 34 35
22 21 19 18 18 18 17 17 17 16 16 16 17 17 18 18 20 22 24 25 27 27 28 29 29 30 30 30 30 30 32 35 35
24 23 22 21 21 20 20 19 19 18 19 19 19 20 21 21 22 24 26 27 29 30 30 31 30 30 29 30 29 32 33 36 36
27 26 25 25 23 22 21 21 20 21 21 21 21 22 23 24 25 27 27 29 31 32 32 33 33 30 29 28 29 31 34 36 35
28 28 28 27 26 25 24 24 23 23 24 23 22 23 24 25 27 30 30 31 33 34 35 34 35 34 32 29 31 34 36 37 36
30 29 30 30 30 28 28 27 28 27 27 26 25 26 27 29 29 31 32 33 35 36 35 34 33 32 32 30 33 35 37 37 35
32 31 31 31 31 30 30 31 31 30 30 29 30 31 31 33 33 34 35 35 36 37 37 37 34 33 31 31 33 34 37 36 35
33 35 35 34 33 33 33 33 34 33 34 32 32 34 35 36 38 38 41 40 40 39 39 39 36 36 34 33 35 35 37 35 35
35 33 34 36 35 36 37 37 37 37 37 39 37 35 37 40 42 42 40 43 43 41 40 39 38 38 37 36 36 36 36 35 35
38 40 38 36 35 35 34 34 43 46 44 46 47 45 44 47 45 44 43 40 42 42 41 39 38 38 38 38 37 37 36 35 34
41 41 40 41 39 37 37 39 40 43 45 50 50 53 53 51 48 45 45 46 44 42 39 39 38 38 38 38 37 35 36 35 35
43 43 41 41 41 40 43 46 44 46 47 48 46 47 50 52 54 52 47 46 45 45 39 38 37 39 38 38 37 37 36 34 35

GFSFLT1_500_spd_075.txt.gz
Wind_Speed
10 9 8 8 8 9 9 9 8 8 9 8 7 6 6 6 6 7 7 8 9 12 14 17 18 19 19 20 21 23 25 26 28
12 10 9 9 9 9 9 10 10 9 10 9 8 7 7 7 7 7 8 9 11 13 17 18 18 19 18 19 21 23 25 26 28
14 13 12 11 10 10 10 10 10 10 10 9 7 8 7 7 8 9 9 10 13 15 17 18 18 20 20 21 22 24 26 27 29
15 14 13 12 11 11 11 11 11 10 9 8 8 8 9 9 9 10 10 12 15 16 19 21 20 21 21 22 23 24 26 28 29
16 16 15 13 13 12 12 11 11 11 10 9 9 8 8 9 10 11 12 14 17 18 21 22 22 23 23 24 24 24 26 27 28
18 17 16 15 13 13 12 12 12 12 11 10 9 9 9 10 11 12 13 15 17 19 21 23 23 24 24 25 25 25 26 27 29
20 18 18 16 15 14 13 12 12 12 11 11 11 11 11 12 13 14 14 17 18 20 22 25 24 25 25 26 26 26 26 27 29
21 20 19 18 17 15 14 14 13 13 13 13 12 13 14 14 14 15 17 19 20 22 24 26 27 27 27 28 26 26 26 28 30
22 22 21 19 18 17 17 16 15 15 15 15 15 15 16 17 17 18 19 20 22 24 25 26 28 29 30 30 29 27 27 28 30
23 23 21 20 21 20 19 19 18 18 18 17 18 19 19 19 20 20 21 22 24 25 26 28 30 31 32 32 31 29 27 29 31
25 25 24 22 23 23 22 21 21 20 20 20 20 21 21 21 22 22 23 24 26 28 29 31 32 32 32 33 32 32 29 30 32
26 26 26 25 25 26 25 25 24 23 23 22 22 22 22 23 24 26 27 27 29 30 31 33 35 35 35 34 31 32 31 32 32
27 28 28 28 29 29 28 28 26 24 24 25 24 25 24 25 26 28 30 31 32 33 35 36 37 37 37 36 35 34 34 35 34
26 28 30 30 31 32 30 29 28 28 27 28 28 28 28 28 29 29 31 33 35 36 39 39 40 38 37 36 36 35 35 36 35
27 29 31 31 31 32 32 31 31 31 31 30 31 32 32 32 33 31 32 36 37 40 42 42 43 42 39 36 36 35 36 36 37
30 30 30 32 33 33 34 34 34 34 35 34 34 33 33 35 36 36 37 40 45 45 43 42 43 44 41 39 38 37 37 37 37
35 33 34 35 32 32 37 36 37 36 37 40 39 37 36 39 41 43 45 48 47 46 46 48 46 44 42 41 39 39 38 37 37
39 39 39 38 36 38 39 38 36 36 35 34 36 39 39 44 45 45 44 47 48 46 48 48 45 44 42 42 37 39 38 36 36
43 40 42 44 43 43 43 40 39 39 38 38 41 44 46 44 44 44 44 45 45 46 47 45 42 42 41 40 38 38 38 36 35
48 47 47 43 43 43 43 43 43 40 42 43 45 46 49 50 53 52 47 46 46 45 42 41 40 39 38 42 37 36 39 36 36

GFSFLT1_500_spd_078.txt.gz
Wind_Speed
9 8 8 8 8 8 8 8 8 8 8 8 8 7 7 7 7 7 8 10 10 12 15 18 19 18 19 19 19 21 22 24 25
11 10 9 9 9 9 8 9 9 9 9 9 8 7 7 7 7 8 8 9 11 13 15 18 19 18 19 20 20 21 22 24 25
13 12 11 10 10 10 10 10 10 9 10 9 9 8 7 7 7 8 8 10 12 14 16 18 19 19 19 20 22 23 23 24 25
16 14 12 12 12 11 11 10 10 10 9 9 8 8 8 7 7 8 8 9 12 15 16 19 20 20 20 21 22 22 22 24 25
17 16 15 14 13 12 11 10 10 10 9 9 8 9 8 8 8 8 9 10 12 14 17 19 20 20 20 22 23 23 23 24 25
18 18 17 16 15 14 13 12 11 11 10 10 9 9 9 9 9 10 11 12 14 15 17 19 20 21 22 23 24 25 25 25 25
20 19 18 18 17 15 14 13 13 12 11 11 12 11 11 12 13 13 13 14 16 17 19 20 22 23 24 26 26 27 27 28 28
21 21 20 19 19 18 16 15 14 14 13 13 14 14 14 15 15 16 16 16 17 19 20 22 24 25 26 28 30 30 29 28 29
23 23 22 21 21 20 18 17 16 16 15 15 16 17 18 18 18 18 18 18 19 21 23 24 26 27 29 31 32 32 32 30 28
25 25 24 23 22 21 21 20 19 18 18 17 18 19 20 21 21 21 20 19 20 22 24 26 28 29 30 33 34 35 33 32 30
26 26 25 25 24 24 24 22 22 21 21 20 21 22 23 23 24 23 23 23 23 25 26 26 29 31 33 36 37 37 34 33 32
26 26 26 26 26 26 26 25 25 24 23 23 23 24 25 25 25 25 26 26 27 27 28 28 30 33 36 38 39 38 35 33 33
27 26 27 26 27 29 28 28 28 27 27 26 25 26 27 27 27 28 29 30 31 31 32 32 32 37 38 39 40 39 39 34 35
25 26 28 28 29 30 29 30 31 30 29 29 28 29 30 29 30 30 31 32 33 33 34 35 39 39 38 39 40 40 40 36 34
26 25 27 29 30 31 32 32 32 33 32 31 32 33 32 33 35 35 34 34 35 37 37 41 46 46 42 43 43 41 39 39 34
27 28 28 29 30 32 32 33 33 35 35 36 36 36 37 37 37 37 37 37 40 45 48 46 46 45 44 45 44 41 39 37 38
33 31 32 33 34 35 36 36 37 38 39 40 39 36 37 40 41 44 43 46 45 45 48 48 44 43 44 45 45 43 41 40 38
37 36 37 39 38 38 40 39 40 40 40 40 40 40 38 35 34 36 38 41 42 44 46 47 48 45 43 42 41 41 41 40 40
37 39 41 41 43 41 40 39 40 41 42 43 45 46 45 44 40 41 43 42 45 49 49 46 44 43 41 40 39 39 40 40 36
39 38 38 39 38 35 35 42 42 41 43 44 46 49 50 48 49 47 45 47 49 51 48 43 43 41 40 41 40 40 41 40 35

GFSFLT1_500_spd_081.txt.gz
Wind_Speed
11 10 8 7 7 7 6 6 6 6 6 6 6 6 6 7 6 6 6 7 8 9 11 14 15 17 16 17 18 19 20 21 22
13 12 10 9 8 8 7 7 7 7 6 6 6 5 5 6 6 6 6 7 7 10 12 14 16 17 17 17 18 20 21 22 22
16 14 13 12 11 9 9 8 9 8 8 7 7 7 6 6 6 6 6 7 8 10 13 15 16 17 17 18 19 21 22 22 23
18 17 15 14 12 11 11 11 10 9 8 8 8 8 8 7 7 7 7 8 10 12 13 15 16 17 18 19 21 22 23 25 25
21 19 17 16 14 13 13 12 11 9 9 8 8 9 8 8 8 8 9 10 11 13 14 15 17 18 20 21 23 23 25 26 28
22 21 19 17 16 15 14 13 12 11 10 9 9 9 9 9 10 11 12 13 14 14 15 16 17 19 20 22 23 25 27 29 30
23 21 20 18 18 16 15 14 13 13 12 11 11 11 11 11 12 13 14 15 16 16 17 18 19 20 21 23 24 26 28 31 31
24 23 22 21 20 19 18 17 16 16 15 14 13 13 14 14 15 16 16 17 17 17 18 20 20 22 23 25 25 28 30 33 33
26 25 24 23 22 22 20 20 19 19 18 17 16 16 16 17 18 18 19 19 19 20 20 21 23 23 24 26 27 29 32 34 34
28 26 26 26 25 24 23 22 21 21 20 20 19 19 20 20 20 21 20 21 21 22 22 24 24 25 25 26 29 31 32 33 35
31 29 29 28 27 27 26 25 25 24 23 22 22 22 23 23 23 23 23 23 23 23 25 25 27 27 28 28 31 32 34 35 34
32 31 30 29 29 29 28 27 28 27 26 26 25 25 25 25 26 26 26 26 27 27 28 29 28 28 30 33 34 37 39 38 36
34 33 33 31 30 30 30 30 30 30 29 28 28 28 28 28 29 29 28 29 31 30 31 33 31 30 33 38 43 40 38 37 37
38 37 35 33 33 32 30 31 30 30 31 31 31 31 32 32 33 32 32 33 33 33 34 35 35 36 41 39 39 39 39 40 38
40 38 37 35 35 32 31 31 30 31 33 34 33 34 35 36 36 36 36 37 36 37 37 38 39 42 42 42 37 41 41 39 38
39 36 36 35 34 34 32 32 32 34 36 36 36 36 37 39 39 40 40 42 40 39 42 40 41 39 42 44 47 44 38 37 37
34 35 34 34 36 35 32 34 34 35 35 36 35 36 38 41 42 42 43 43 44 39 38 39 40 41 45 46 42 41 39 38 37
39 36 37 35 36 34 37 38 38 39 38 38 36 36 37 39 42 44 43 42 40 39 42 43 46 47 47 47 42 41 40 38 37
40 40 41 39 38 37 30 36 35 30 33 39 38 40 42 43 41 44 45 45 44 45 45 46 48 53 49 46 42 39 37 37 36
44 39 33 32 38 35 35 43 42 39 37 38 37 35 38 40 42 43 46 47 49 50 49 50 50 48 46 45 43 40 38 35 35

GFSFLT1_500_spd_084.txt.gz
Wind_Speed
15 14 12 10 9 8 8 7 7 6 6 6 6 6 6 6 5 5 5 5 6 7 9 12 14 15 15 16 17 18 21 22 23
18 16 14 12 11 10 9 9 8 8 8 7 7 7 6 6 6 6 6 6 7 9 11 13 15 16 16 16 18 20 22 23 24
21 19 17 14 13 12 11 10 10 10 10 9 8 7 8 8 8 7 7 7 8 10 12 14 15 16 16 17 19 21 22 23 25
23 21 19 17 15 14 13 12 12 12 11 9 9 9 9 9 9 8 8 9 10 11 13 14 15 16 17 18 20 21 22 23 25
26 24 21 20 18 17 15 13 13 13 11 10 10 10 10 10 9 9 10 10 12 13 13 14 15 16 17 18 20 21 22 23 26
28 26 24 22 20 19 17 16 15 14 13 12 11 11 11 11 11 11 12 13 14 14 15 16 17 17 18 20 21 22 23 25 27
30 28 26 24 22 20 19 19 17 16 15 14 13 13 13 13 13 14 14 15 16 16 17 18 19 19 20 21 22 24 24 26 28
32 30 28 26 23 22 21 21 19 19 17 17 16 16 16 16 16 17 17 18 18 19 19 19 21 22 21 24 25 25 25 27 28
33 30 29 27 25 24 23 23 22 21 20 20 19 18 18 19 19 20 20 20 21 21 21 22 23 23 24 26 25 26 27 29 32
35 33 31 28 28 28 27 26 25 24 24 23 22 22 21 22 22 22 23 23 23 23 23 24 24 25 27 27 28 28 30 34 39
38 34 32 31 31 31 30 30 29 28 27 26 25 25 24 24 25 25 25 25 26 26 26 27 27 29 31 29 29 31 35 38 35
39 35 37 36 34 34 33 33 31 31 30 29 29 28 28 27 28 27 27 27 29 29 29 29 30 30 31 34 33 35 35 38 33
39 42 39 37 37 36 36 35 35 34 33 32 32 32 31 30 31 31 31 31 32 31 32 32 32 32 33 33 35 37 39 38 37
45 45 41 39 39 38 37 37 37 35 34 34 34 35 36 34 34 33 34 36 35 35 35 36 36 36 36 36 38 38 41 43 42
45 45 42 40 39 39 38 39 39 36 35 35 35 37 38 36 35 36 37 39 37 38 39 41 39 39 40 42 38 36 41 45 41
43 40 39 40 41 40 40 42 40 39 37 36 37 39 39 37 37 38 39 40 40 41 42 41 41 43 38 37 40 43 44 46 39
38 34 42 47 44 43 41 41 41 41 38 38 38 41 39 38 37 38 40 42 41 40 42 41 40 41 44 45 45 46 47 45 40
34 32 32 39 42 46 46 43 41 41 42 43 42 41 41 37 38 40 42 43 43 42 43 44 43 45 49 48 50 50 46 43 41
40 41 38 35 47 42 41 38 35 32 30 29 33 37 42 43 42 41 44 46 45 45 44 48 47 47 50 51 48 49 46 44 42
45 46 42 45 39 40 38 40 41 36 38 37 34 35 37 38 39 38 37 44 44 44 41 41 45 46 46 48 49 48 46 45 45

GFSFLT1_500_spd_087.txt.gz
Wind_Speed
19 18 17 15 12 10 9 8 8 8 8 7 7 6 6 6 6 6 6 7 6 7 8 11 13 14 14 15 16 17 19 20 21
21 20 18 17 15 12 11 10 9 9 8 9 8 8 7 7 7 7 7 7 7 8 9 12 13 14 14 15 16 17 19 19 21
22 21 20 19 17 15 13 12 11 10 10 10 10 10 8 8 8 8 8 8 8 9 11 12 13 14 15 15 17 18 20 21 22
24 23 22 21 19 17 16 14 13 12 11 12 12 11 10 10 10 10 10 9 10 11 12 13 14 14 15 16 18 19 21 22 23
26 25 25 23 22 20 18 16 15 14 13 13 13 13 12 11 11 11 11 11 11 12 13 14 15 16 17 17 18 20 22 23 23
29 28 27 25 24 23 21 20 18 16 16 15 14 14 14 13 12 12 12 13 14 14 15 16 17 18 19 19 20 22 23 24 24
31 31 30 29 28 26 24 22 21 19 18 17 16 16 15 15 14 14 14 14 16 17 18 18 19 20 20 21 21 24 25 26 27
34 32 32 31 29 28 26 25 23 21 20 19 18 18 18 17 17 17 17 17 18 19 20 20 20 22 22 22 24 25 26 27 29
34 35 34 32 31 30 28 26 25 24 23 22 21 20 20 20 20 20 20 21 21 22 22 22 22 24 24 25 26 27 27 28 31
37 37 35 34 33 31 31 28 27 26 26 25 23 23 23 23 23 23 23 24 25 24 24 24 25 26 27 28 28 28 29 30 33
40 39 38 36 36 33 32 28 32 29 28 27 27 27 26 27 27 26 26 27 27 27 26 27 28 30 31 31 30 29 30 30 33
44 42 41 41 38 35 31 35 35 32 31 30 30 30 30 30 30 29 30 30 29 29 29 29 30 30 32 35 34 33 34 36 36
47 46 45 43 41 35 39 42 38 35 33 33 33 33 34 33 33 33 33 33 32 32 32 33 33 33 34 36 38 37 38 39 39
50 50 48 46 43 39 43 42 40 38 36 36 37 36 37 36 36 37 36 36 36 36 36 35 36 36 37 37 39 40 41 40 39
53 52 52 49 46 46 43 45 42 39 39 38 39 38 39 39 38 38 38 39 39 40 40 38 38 38 39 39 39 39 37 39 43
55 60 58 53 51 49 43 40 41 40 41 40 40 42 41 41 40 40 39 40 40 42 42 40 39 39 39 39 38 38 40 43 44
61 57 54 55 52 39 41 41 44 43 42 43 43 42 42 42 44 41 42 43 42 44 43 41 39 40 41 40 41 42 43 43 44
56 59 56 54 45 38 37 40 45 43 44 42 42 42 42 46 45 44 44 46 45 45 43 42 42 43 42 44 43 41 42 42 43
39 56 56 54 34 27 33 40 38 41 42 43 40 37 36 42 44 44 45 47 48 47 43 40 40 43 42 42 43 43 44 44 45
45 44 55 46 42 35 35 43 40 40 49 39 42 43 42 39 38 36 37 39 42 41 42 42 43 42 43 44 44 47 48 51 51

GFSFLT1_500_spd_090.txt.gz
Wind_Speed
21 20 18 17 15 14 12 10 9 8 8 7 7 7 7 6 6 6 6 6 7 7 8 9 11 12 12 13 13 15 16 17 18
22 22 20 19 17 16 14 13 12 10 9 9 9 8 8 8 7 7 7 7 7 7 8 10 11 12 12 12 13 14 16 17 19
24 24 22 21 19 18 16 14 13 13 11 10 9 9 9 9 9 8 8 8 8 8 9 10 11 12 13 14 14 15 16 17 19
25 25 24 23 22 20 18 17 15 14 14 13 11 10 10 10 10 10 9 9 9 9 10 11 12 13 13 14 16 16 18 20 20
26 26 25 25 24 22 21 19 18 16 16 15 14 12 11 11 11 11 11 11 10 11 12 13 14 14 15 16 18 19 20 22 22
28 28 27 27 26 24 23 22 20 19 18 17 16 15 13 12 13 12 12 13 13 14 15 15 16 17 17 18 20 20 22 24 23
31 30 30 29 27 27 26 24 22 21 20 19 18 17 15 14 14 14 15 15 15 17 17 18 18 19 20 20 21 22 24 24 25
34 34 33 32 30 29 28 27 25 24 22 21 19 19 18 17 17 16 17 17 18 19 20 20 21 21 22 22 23 24 25 25 26
39 38 36 34 32 31 30 29 27 26 24 23 22 21 21 20 19 18 19 19 21 22 23 23 23 23 23 24 24 26 27 26 27
43 40 37 35 33 33 32 31 29 28 26 25 24 24 24 23 22 22 22 22 24 25 25 26 26 25 26 26 26 28 29 29 30
44 41 39 37 36 34 34 33 31 29 29 26 31 29 28 26 25 25 25 26 27 27 28 28 29 29 29 30 30 29 30 31 31
46 44 42 40 40 37 37 36 34 32 31 28 36 32 31 29 28 28 29 31 30 30 31 31 32 31 33 34 35 35 34 34 34
49 46 45 44 43 40 40 40 39 36 32 35 39 35 34 33 31 32 32 34 34 33 34 33 35 35 35 37 38 40 39 37 37
51 49 48 47 45 44 44 43 42 40 34 38 40 38 37 36 35 35 36 36 36 36 37 37 37 38 39 40 40 40 41 39 38
54 52 52 51 49 49 48 45 44 42 46 43 40 38 40 40 39 39 39 39 39 40 39 39 41 40 40 41 41 42 42 40 41
58 57 56 54 54 53 47 50 47 46 47 41 38 40 40 43 41 40 42 41 42 42 42 43 42 41 41 41 41 42 45 44 43
57 59 56 57 56 51 53 53 47 47 51 37 41 40 42 44 41 43 42 42 44 45 45 46 44 43 38 40 41 45 46 43 42
59 54 55 53 57 57 47 53 47 51 53 41 41 44 44 45 44 43 41 46 46 44 47 45 44 43 42 43 42 43 43 42 42
57 48 48 55 54 55 53 43 46 49 43 37 37 39 34 36 37 34 37 38 39 42 45 47 45 45 43 41 42 42 43 44 45
37 39 42 40 33 46 47 47 39 38 40 40 36 40 46 47 40 39 40 40 40 35 39 43 40 40 43 44 46 44 44 45 45

GFSFLT1_500_spd_093.txt.gz
Wind_Speed
22 20 18 18 17 16 15 13 11 10 9 8 8 7 7 7 7 6 6 6 6 6 6 7 8 9 10 10 11 12 13 15 16
24 22 21 20 19 19 17 16 14 12 10 9 9 8 8 8 8 7 7 8 8 8 7 9 10 10 10 11 11 13 14 16 17
27 24 23 22 21 20 19 17 16 14 13 11 10 9 9 8 9 9 9 9 9 9 9 10 11 11 11 12 13 14 16 17 19
29 26 24 23 23 22 21 20 19 17 15 14 12 10 10 11 10 10 11 11 10 10 10 11 12 12 12 13 15 15 16 18 20
31 29 26 25 25 25 23 22 21 19 18 16 15 13 11 13 11 12 12 12 12 12 12 13 14 14 15 16 16 18 18 20 20
34 32 29 28 27 26 25 24 23 21 20 19 17 16 14 13 13 13 14 14 14 14 14 15 16 16 17 18 19 20 21 22 23
38 35 31 30 29 28 27 26 26 24 23 21 20 18 17 15 14 15 15 16 16 16 17 17 18 18 19 20 22 22 23 25 26
41 38 35 33 32 31 29 29 28 27 25 23 22 20 19 18 16 17 17 18 18 18 19 19 20 21 22 21 23 25 26 26 27
44 42 39 37 36 33 31 30 30 30 27 25 24 23 21 21 20 20 20 20 21 21 21 21 23 24 24 23 24 26 28 28 29
48 45 43 41 38 35 33 32 33 32 30 28 27 25 23 23 23 23 23 24 24 24 24 24 25 26 26 26 27 28 30 31 32
49 48 46 43 40 37 36 36 35 34 33 32 29 28 24 25 29 27 26 27 27 28 27 28 28 28 29 29 30 30 31 33 33
51 50 48 44 42 40 40 39 37 37 37 34 33 31 28 26 33 31 29 30 31 31 31 32 32 33 33 34 33 34 35 35 37
54 53 48 46 44 44 42 41 41 39 39 39 36 36 33 31 37 34 32 32 34 34 35 36 35 36 36 37 37 38 38 38 40
54 51 50 50 48 45 45 46 44 43 43 43 40 38 34 36 38 36 34 33 36 37 38 38 38 40 40 39 39 40 41 41 41
56 55 55 53 50 50 49 49 48 48 47 47 44 40 41 35 39 39 35 35 36 39 41 41 41 42 43 42 42 42 43 42 42
63 57 56 56 55 53 52 52 51 51 51 49 44 44 42 46 42 41 38 36 36 39 40 40 41 42 44 44 43 43 43 43 42
53 58 60 59 57 56 56 56 55 55 51 46 54 50 43 43 45 43 39 41 41 42 41 42 42 42 43 43 45 44 44 44 45
38 41 51 62 62 62 61 59 54 52 53 63 56 46 44 45 51 48 44 44 45 41 40 41 42 43 44 45 45 44 44 43 41
48 41 37 50 59 62 64 66 51 52 42 46 43 44 47 55 35 38 38 37 36 34 34 35 36 37 40 40 42 41 41 41 44
42 44 41 34 41 40 38 54 50 35 36 36 37 41 36 34 33 36 41 42 44 39 39 40 42 42 42 41 40 40 39 41 43

GFSFLT1_500_spd_096.txt.gz
Wind_Speed
22 21 20 19 18 18 17 15 13 11 10 9 9 8 7 7 7 8 8 8 8 9 9 10 10 11 11 11 11 12 13 15 16
25 24 23 22 20 19 19 17 15 13 12 11 11 10 8 8 8 8 8 9 9 10 11 11 11 11 11 11 12 13 15 16 17
30 25 25 24 23 21 21 20 17 15 14 13 12 12 10 9 8 9 10 11 10 11 11 12 13 12 12 12 13 14 16 17 19
33 27 28 27 25 23 23 22 20 18 16 15 14 14 12 12 10 10 11 12 12 12 13 13 14 13 14 14 15 16 17 19 20
35 30 29 29 27 25 24 24 23 20 19 18 17 16 16 14 13 13 12 13 13 14 15 15 16 16 15 16 16 18 18 20 21
34 33 32 31 29 28 27 26 25 23 21 20 20 18 19 16 16 15 14 14 15 15 16 17 17 18 18 18 19 20 21 21 22
38 37 35 33 32 31 30 28 27 26 24 23 22 21 21 20 17 17 16 15 17 17 18 19 20 20 20 20 21 21 23 24 24
42 40 38 35 35 33 32 31 30 28 27 25 25 24 24 24 21 20 18 18 18 19 20 21 22 22 23 22 23 24 25 26 28
47 43 41 39 38 37 35 34 32 31 30 29 27 27 27 27 25 22 21 21 20 21 22 24 25 25 26 25 25 26 27 28 30
51 48 45 43 43 40 39 36 34 34 32 31 31 30 29 30 28 25 24 23 24 24 24 26 27 28 30 29 29 29 30 32 32
45 42 51 47 47 45 41 39 37 37 35 35 35 34 33 33 31 28 27 26 28 28 27 28 29 30 32 32 32 33 33 34 35
61 58 53 52 52 50 44 41 40 39 37 38 38 36 36 35 34 32 29 28 31 32 31 31 30 32 33 35 36 36 36 37 36
66 56 45 48 50 50 46 45 44 41 40 40 40 39 39 40 37 37 32 32 33 35 35 34 33 33 34 35 38 39 39 39 39
64 62 69 57 61 51 46 48 45 44 43 43 43 42 43 43 41 40 35 32 36 37 37 37 36 36 36 36 38 40 41 40 40
69 63 66 64 59 56 54 50 46 47 46 45 46 45 45 46 43 41 38 38 37 38 39 38 38 38 38 38 40 41 42 42 41
39 40 69 67 62 59 55 52 51 50 49 49 49 48 48 46 43 48 46 47 33 41 41 38 38 39 42 42 42 43 43 43 41
25 36 45 67 60 59 60 56 53 54 55 55 55 52 48 46 47 52 60 56 42 43 44 39 42 45 45 46 46 46 45 43 42
26 27 32 58 60 63 61 60 59 58 59 58 59 58 54 43 52 58 58 51 43 48 53 46 45 44 43 40 38 36 36 38 38
37 35 38 36 54 64 64 64 63 61 63 68 59 49 55 55 56 53 48 43 43 37 36 37 34 35 38 38 39 38 37 38 37
55 41 37 39 36 39 44 48 51 62 67 45 37 35 31 30 33 29 35 37 37 35 35 42 41 40 41 46 46 41 40 41 39

GFSFLT1_500_spd_099.txt.gz
Wind_Speed
24 22 22 20 17 18 16 15 15 13 12 10 8 8 9 9 9 9 9 9 10 10 10 11 12 12 13 13 12 12 13 14 16
28 26 25 23 19 20 19 17 17 15 14 12 10 9 9 10 10 10 10 10 10 11 12 12 13 13 14 14 14 14 14 15 16
31 29 28 25 23 22 21 19 18 17 16 15 13 12 12 11 11 11 11 11 12 12 13 13 14 15 16 16 16 16 16 17 18
34 33 29 27 26 24 24 22 20 19 18 18 16 15 14 14 13 12 13 13 13 14 13 15 15 16 17 17 17 18 19 19 19
39 37 31 29 28 27 26 24 23 22 20 20 19 17 16 17 16 16 15 15 15 16 15 15 17 18 18 18 18 19 20 22 22
43 39 37 31 31 30 28 28 26 24 23 22 22 21 19 19 19 19 18 17 17 16 17 18 18 19 19 19 20 21 22 23 25
46 43 41 37 35 33 31 30 30 28 26 25 23 24 23 22 22 22 21 20 19 19 17 19 20 21 21 21 22 22 24 25 28
52 45 42 43 38 36 34 33 33 31 29 28 26 26 26 25 25 24 24 24 22 21 21 21 21 23 24 24 24 24 25 26 29
54 48 43 43 43 40 37 37 35 33 32 31 30 28 28 28 27 27 27 26 25 24 23 24 24 24 25 26 26 27 27 28 30
54 51 46 45 46 45 43 39 38 37 36 34 33 32 31 31 31 30 29 29 28 28 26 27 27 27 26 28 29 28 29 31 32
55 51 50 48 49 50 48 45 42 40 38 37 35 35 34 34 33 32 32 31 31 31 29 29 30 30 30 29 30 31 31 33 33
58 57 53 47 55 58 53 50 43 42 42 40 39 38 37 36 36 35 35 35 33 34 31 33 32 34 32 33 33 33 33 34 35
63 55 64 50 50 45 55 53 48 46 46 44 42 40 40 39 38 39 38 37 37 36 36 34 37 37 36 35 36 36 36 37 37
59 51 50 65 62 56 47 46 53 53 51 45 44 44 43 42 41 41 41 40 38 39 39 36 39 38 39 38 39 39 39 41 41
57 56 46 53 65 63 61 51 54 51 49 46 47 47 46 45 44 43 43 41 41 40 44 44 44 44 41 42 40 41 43 44 44
57 57 60 46 51 67 72 62 60 52 58 54 51 50 48 48 47 45 43 40 41 43 46 46 52 40 41 44 43 43 46 47 48
59 60 49 41 45 71 68 68 69 63 61 55 54 52 52 51 51 48 45 45 46 45 48 55 49 57 50 46 47 47 47 46 40
42 53 46 39 37 35 57 71 69 68 69 64 63 59 58 57 58 57 50 52 50 54 53 55 58 56 47 50 52 51 48 40 37
39 53 42 45 32 33 38 51 69 69 70 67 60 61 62 63 61 58 58 60 60 50 50 54 51 45 41 40 39 38 38 39 41
35 35 38 45 37 48 42 38 46 66 68 63 60 63 64 66 60 49 38 30 27 31 35 40 42 41 35 35 40 40 39 43 44

GFSFLT1_500_spd_102.txt.gz
Wind_Speed
24 24 23 20 17 15 15 15 14 13 12 10 10 9 8 8 8 9 9 10 10 11 11 11 11 12 13 13 14 14 14 15 16
30 27 27 23 21 19 17 17 16 16 14 12 12 11 10 9 10 10 10 11 11 11 12 12 13 13 14 14 14 15 16 16 18
34 33 30 27 24 22 20 19 18 18 17 15 15 14 12 11 11 12 12 12 12 13 13 14 14 14 15 16 16 16 17 18 18
38 37 35 31 28 25 23 21 20 20 20 19 17 17 16 14 13 13 14 14 14 14 15 16 16 16 18 18 18 18 19 19 20
40 41 39 37 32 31 26 25 23 22 23 22 21 20 19 18 17 16 16 16 16 16 16 17 17 18 18 20 20 20 20 19 20
42 42 42 43 36 34 32 28 27 25 25 25 24 23 23 22 20 19 19 18 18 18 17 18 19 19 19 21 21 22 22 22 22
40 43 44 45 43 38 36 32 30 29 28 28 27 26 25 25 23 22 21 21 21 21 20 19 20 21 20 22 23 24 24 25 24
40 43 45 45 46 44 39 38 35 34 32 30 30 30 29 28 26 25 24 24 24 23 23 23 22 22 22 23 24 25 25 26 26
38 44 46 48 48 45 44 41 40 37 36 34 33 33 32 30 29 28 27 27 26 25 26 26 24 25 24 25 26 27 27 28 28
32 39 42 48 51 49 46 45 43 42 39 37 37 36 35 33 33 31 30 30 29 28 28 28 28 27 26 27 27 30 30 30 31
36 34 37 48 52 50 50 48 46 45 42 40 39 39 38 36 36 34 33 32 32 32 30 30 31 30 29 29 30 31 33 33 33
42 43 45 45 50 52 51 51 49 48 44 43 43 42 41 39 38 37 36 35 35 35 34 33 34 32 31 30 32 33 36 36 36
47 43 46 50 52 51 49 52 52 52 51 47 45 47 45 42 41 41 39 38 38 37 37 37 35 36 36 35 36 37 35 38 39
49 47 44 46 54 55 58 46 48 59 62 59 52 52 49 47 44 43 43 42 40 40 40 39 38 38 40 39 38 42 44 41 40
43 45 41 47 48 54 55 57 59 53 48 47 44 48 50 48 46 45 45 44 43 42 41 40 39 42 42 42 43 43 49 45 42
45 44 42 45 46 53 51 48 54 62 64 65 65 58 55 53 50 47 46 46 46 42 41 45 47 45 44 49 47 47 44 48 47
48 44 43 41 49 55 51 48 48 50 62 60 50 47 51 46 50 49 50 50 47 45 46 51 50 51 52 52 53 57 51 52 50
41 42 43 42 45 55 57 58 63 58 52 53 61 67 65 71 52 51 51 53 56 47 49 54 56 53 56 53 59 57 55 53 51
44 42 41 43 37 42 53 47 40 41 45 60 65 67 66 66 64 64 62 63 62 62 61 58 55 57 57 60 59 53 48 44 41
45 39 37 35 43 45 45 43 45 45 48 49 57 68 70 69 67 69 61 63 61 48 40 38 44 49 47 40 44 44 39 37 42

GFSFLT1_500_spd_108.txt.gz
Wind_Speed
32 29 27 24 23 21 19 16 15 15 13 12 12 11 10 10 10 10 10 10 10 11 11 12 12 13 13 14 14 14 13 14 15
32 33 30 27 26 25 23 21 18 17 16 15 15 14 14 13 12 12 12 11 11 12 12 13 14 14 14 15 15 14 14 14 15
29 32 31 28 26 27 27 26 24 21 19 19 18 18 17 16 15 15 15 14 14 14 14 14 15 15 15 15 16 16 15 15 16
28 30 34 34 32 30 31 29 28 26 24 22 22 21 21 20 19 19 18 17 17 16 16 16 16 16 16 17 16 17 17 16 16
29 30 31 33 35 35 34 32 31 30 29 27 26 25 25 24 23 22 22 21 20 20 19 19 18 19 18 18 18 18 19 18 18
34 32 31 33 32 32 35 34 32 32 32 31 31 29 28 27 27 26 25 24 24 23 22 22 21 21 21 20 20 20 20 20 20
38 36 35 34 34 34 36 40 38 36 35 35 34 34 32 30 30 30 29 28 27 26 25 24 24 23 24 24 23 23 23 22 22
43 41 39 34 33 35 37 39 41 40 37 38 38 37 36 33 32 32 32 31 30 29 28 27 26 26 26 26 26 26 25 26 25
47 44 41 37 34 36 35 41 43 43 42 41 40 38 38 37 35 34 34 34 33 32 31 30 28 28 28 28 28 28 29 28 27
49 47 40 41 40 39 38 36 41 41 42 43 42 40 41 39 39 38 36 36 36 35 34 33 31 31 31 30 30 30 31 31 31
49 50 47 47 43 40 38 36 35 35 40 44 43 43 43 44 43 40 38 38 37 37 37 36 35 34 34 33 33 32 33 33 33
47 51 50 49 49 40 36 35 35 34 35 35 39 45 48 45 46 44 42 39 38 38 38 38 38 37 37 37 36 36 36 36 36
50 52 52 51 48 45 43 44 40 41 33 36 37 39 48 49 48 47 45 42 41 38 41 41 40 40 40 40 40 39 39 39 39
45 53 53 50 49 48 47 45 45 46 46 44 47 46 39 43 49 48 46 46 45 42 42 43 43 43 42 42 42 42 41 42 41
53 56 58 53 51 48 46 44 44 44 47 49 51 51 53 49 52 56 51 44 47 46 45 46 46 45 46 46 46 46 45 42 43
48 48 49 52 47 45 48 47 45 46 47 50 53 53 54 60 56 45 44 44 45 57 55 51 47 49 49 49 48 48 48 47 45
58 51 42 45 44 49 49 47 48 49 48 50 52 53 53 55 55 56 52 51 52 52 43 47 51 54 57 52 53 52 49 47 48
66 55 56 45 46 50 49 51 53 53 49 51 52 50 51 55 58 54 60 53 53 49 54 54 60 62 57 55 56 52 51 57 64
80 72 54 54 51 49 53 52 54 51 47 47 52 53 50 54 55 55 59 52 52 50 52 55 57 61 61 61 59 59 50 56 58
74 71 60 54 60 65 54 52 51 53 51 49 52 54 53 53 54 50 49 55 60 54 50 51 53 54 57 63 64 51 41 39 41

GFSFLT1_500_spd_111.txt.gz
Wind_Speed
25 29 29 27 25 25 22 21 19 19 17 15 15 15 13 12 10 10 11 12 12 11 11 11 11 11 11 13 12 13 13 12 12
22 24 28 29 28 27 27 25 23 22 22 20 18 17 17 16 15 13 13 13 14 13 13 13 13 13 13 13 14 14 14 13 13
23 23 26 29 31 29 27 26 26 25 25 24 22 20 20 20 19 18 17 16 15 16 15 15 15 15 16 15 15 15 15 15 15
26 26 25 28 31 32 30 30 29 28 29 28 27 25 23 22 23 23 21 20 19 18 18 18 18 18 18 18 18 17 17 16 17
32 31 30 30 31 32 34 34 33 32 31 32 30 29 29 26 25 25 26 24 23 22 21 20 20 20 20 20 20 20 19 19 19
37 35 34 33 32 31 32 33 35 36 34 34 33 32 31 31 29 27 27 27 27 26 25 24 23 22 22 22 22 22 22 22 22
42 40 39 37 36 34 33 34 34 35 35 35 32 33 34 33 32 31 30 30 30 30 29 28 27 26 25 24 24 24 24 24 25
45 44 43 42 39 35 36 36 38 38 39 39 40 39 36 36 36 34 33 32 32 32 31 31 30 29 28 27 26 26 26 27 27
48 47 46 45 42 39 38 37 37 41 42 41 42 40 40 38 38 37 36 35 34 34 33 33 33 32 32 30 29 28 28 29 30
48 49 48 47 45 42 42 41 39 38 39 41 41 41 42 42 41 40 41 40 37 36 36 35 35 35 34 33 32 31 31 31 31
47 46 48 49 48 47 45 43 43 43 41 39 38 41 40 40 43 43 42 43 41 39 38 37 37 37 36 36 36 35 34 34 34
49 43 46 47 48 48 47 47 42 39 39 42 35 35 34 31 38 43 44 43 44 42 40 40 38 38 38 38 39 39 38 38 37
45 43 47 51 48 48 51 48 46 45 38 39 36 34 36 36 36 38 39 45 46 44 43 41 40 39 40 41 41 41 41 41 41
55 52 43 49 50 51 56 54 51 47 45 44 46 44 39 39 42 41 43 42 46 46 46 48 44 43 43 42 42 42 42 43 44
55 61 50 55 48 48 46 47 47 47 48 51 51 52 50 49 50 50 48 48 44 43 45 46 46 47 47 45 45 44 44 45 47
62 58 67 54 47 53 53 53 50 51 51 51 49 47 48 51 49 50 49 51 57 55 50 50 46 42 50 51 53 51 48 49 48
64 62 65 58 48 55 51 56 53 50 52 50 50 49 46 48 47 50 51 53 53 56 53 47 49 50 45 50 56 48 50 51 53
66 66 62 74 54 51 48 44 46 43 43 46 48 48 48 49 51 51 53 52 51 52 51 54 55 53 51 49 56 53 56 63 61
67 65 64 66 77 71 52 43 41 38 41 43 45 47 48 50 51 51 53 54 51 53 54 54 57 56 53 53 53 56 57 61 60
67 68 64 64 67 74 76 68 62 45 44 47 49 48 51 54 52 52 54 55 54 51 54 53 53 55 54 57 52 55 55 54 50

GFSFLT1_500_spd_114.txt.gz
Wind_Speed
22 22 21 24 27 26 25 24 23 22 21 20 18 17 16 15 14 13 12 11 12 11 12 12 12 12 11 11 11 11 11 12 12
21 22 22 22 23 28 30 27 25 24 24 23 22 21 19 18 17 16 16 15 14 14 13 13 13 13 13 12 12 13 12 12 12
23 23 23 24 26 24 28 30 28 27 27 26 26 25 23 21 21 20 19 19 18 17 16 16 15 15 15 15 14 14 14 14 14
30 28 26 26 26 27 28 30 30 29 27 28 29 28 26 25 24 22 23 22 22 21 20 19 19 18 18 18 17 16 16 16 16
34 33 32 30 29 30 31 31 32 32 33 33 32 30 30 28 27 26 25 25 25 24 23 23 22 22 21 20 20 20 19 19 18
41 39 37 34 34 34 33 33 33 33 34 34 34 33 32 31 31 28 27 26 27 27 27 26 25 25 24 24 23 22 23 22 22
44 43 43 40 38 37 36 35 36 35 35 34 34 34 33 33 32 31 30 29 29 28 29 29 28 27 27 27 26 26 25 25 25
45 46 46 46 45 41 39 36 37 38 38 38 38 36 35 36 34 33 33 33 32 31 31 30 30 30 30 29 29 29 28 27 27
50 49 48 50 48 46 42 40 38 38 39 40 42 43 41 39 38 38 39 36 34 35 34 33 32 32 31 31 32 31 31 30 30
49 51 50 47 48 48 45 44 42 40 41 41 40 41 41 42 43 38 40 39 38 36 35 35 35 34 34 33 33 34 33 33 33
48 50 51 50 47 47 45 44 44 44 42 43 43 42 41 39 38 39 37 40 40 39 38 38 37 37 36 35 35 35 36 36 36
51 51 50 52 48 44 43 41 43 44 44 44 43 45 44 40 39 35 30 33 37 40 40 40 40 39 37 36 37 36 37 38 38
56 53 53 50 50 49 43 43 43 43 47 45 47 44 42 41 35 38 35 32 33 35 34 39 43 43 42 39 37 38 39 39 39
62 59 57 53 46 49 42 41 47 45 38 43 45 44 44 45 43 38 39 35 33 34 37 37 42 44 44 44 42 41 40 39 40
60 55 56 55 55 51 47 44 41 48 47 46 47 49 51 50 49 47 46 45 44 43 46 46 43 46 47 46 44 43 44 42 43
66 64 61 55 57 54 61 56 51 48 48 47 49 48 49 51 53 52 50 48 48 46 44 43 44 46 48 44 49 44 42 44 48
71 71 69 66 61 62 58 66 46 40 51 51 51 50 53 54 52 51 46 48 47 46 46 43 44 45 48 54 52 49 47 47 44
64 68 71 69 65 64 63 61 64 66 55 63 58 52 56 55 51 50 47 45 46 45 45 47 47 46 42 45 50 48 51 48 47
56 40 54 68 66 63 64 66 57 59 52 56 50 51 53 55 49 45 43 43 42 45 46 50 49 51 48 48 50 50 54 52 49
58 72 54 61 64 64 61 57 58 59 62 45 51 40 41 40 43 43 39 42 41 44 46 50 51 51 52 46 49 49 52 53 52

GFSFLT1_500_spd_117.txt.gz
Wind_Speed
20 21 22 22 22 24 28 27 23 23 24 23 22 20 19 18 17 17 15 14 13 13 13 13 12 12 11 10 9 9 8 8 8
22 21 21 23 23 24 24 25 28 25 26 26 25 23 22 21 20 20 18 17 16 15 16 16 15 15 14 13 12 11 11 10 10
27 25 24 24 25 24 24 25 24 27 27 27 28 27 25 23 22 22 21 21 20 18 17 17 18 18 17 16 15 15 14 14 14
32 31 29 29 27 27 26 26 27 26 27 29 28 28 28 27 25 25 23 23 23 22 21 21 20 20 20 19 19 18 18 17 17
38 36 35 34 33 31 30 30 30 29 29 29 32 32 31 29 28 28 26 26 25 24 24 24 24 23 22 22 21 21 20 20 20
42 42 40 39 39 37 35 34 33 33 31 30 32 32 33 32 30 30 30 28 27 27 26 26 26 26 25 25 24 24 23 23 22
46 45 44 43 43 41 40 39 37 34 35 35 35 35 33 31 34 32 32 31 30 29 28 28 27 28 27 27 27 26 26 26 25
49 48 47 48 46 46 45 44 40 38 38 37 38 38 37 34 33 33 33 32 32 32 31 29 29 29 29 29 29 28 27 28 28
40 43 47 49 50 49 47 47 46 44 41 39 39 39 39 40 38 37 38 38 38 38 36 34 32 31 30 30 31 31 30 29 29
43 42 43 45 49 52 52 51 49 46 46 42 41 40 41 41 39 38 39 41 40 41 39 38 36 35 33 31 31 32 32 32 31
49 47 47 45 43 46 50 50 49 48 47 45 42 41 41 42 41 39 39 40 36 38 41 41 40 37 35 34 34 33 33 34 34
55 51 49 49 48 45 44 48 49 47 47 43 43 44 44 46 46 43 44 41 37 38 38 39 39 39 38 38 37 37 37 36 36
62 58 55 52 52 50 50 48 47 51 48 40 39 42 46 47 48 46 44 44 42 37 34 33 32 33 32 34 36 39 40 40 38
64 64 63 61 59 54 53 54 52 48 51 41 43 41 47 44 44 48 46 43 36 36 37 34 33 32 34 35 34 38 41 42 42
71 65 66 64 62 60 59 56 60 53 46 48 43 41 49 47 48 48 47 47 45 43 42 41 38 40 41 41 39 39 42 45 44
72 73 69 65 63 59 57 52 61 55 49 47 53 50 51 51 53 52 52 55 52 51 45 48 49 46 45 42 39 39 42 44 43
77 76 68 71 66 61 60 58 57 59 57 55 57 50 57 55 54 54 55 51 51 52 53 51 47 44 43 43 41 41 40 45 50
68 69 75 67 70 67 67 63 59 58 61 60 58 60 51 50 47 57 50 46 50 56 56 55 50 45 43 42 41 40 42 41 43
60 60 61 65 63 63 69 71 68 66 59 63 59 59 67 65 53 54 61 55 55 57 58 54 50 45 42 39 40 40 40 43 44
59 52 53 51 56 59 46 53 67 76 70 60 55 52 44 44 49 55 56 49 51 51 52 48 45 44 42 41 40 40 42 44 46

GFSFLT1_500_spd_120.txt.gz
Wind_Speed
23 22 22 21 21 21 22 23 27 27 25 25 23 22 21 21 20 19 20 18 16 15 15 14 14 14 13 13 12 11 9 9 8
26 25 25 24 23 23 24 23 24 24 27 27 26 25 24 22 24 21 21 21 20 19 18 17 16 16 16 16 15 14 13 12 12
31 30 29 28 28 26 25 24 23 24 25 25 28 26 26 26 25 23 23 22 22 22 21 20 20 19 18 18 18 17 16 16 16
36 35 35 34 33 32 30 28 27 25 24 26 26 27 27 27 27 26 25 25 24 23 24 23 22 22 22 21 21 20 19 19 19
40 39 38 37 37 37 36 34 32 29 28 28 27 28 28 30 30 28 27 27 26 25 24 24 25 25 24 24 23 23 23 22 22
44 43 42 42 41 40 40 39 37 36 34 33 33 32 29 29 31 33 33 32 30 29 27 26 25 26 26 27 26 25 24 24 24
46 47 47 46 45 45 44 43 42 40 39 38 36 35 34 31 31 31 31 33 34 33 31 30 28 27 27 27 28 28 28 27 26
40 40 43 44 48 49 48 48 46 45 44 43 40 40 38 35 33 34 33 32 33 34 35 33 32 32 30 29 28 29 29 29 29
43 42 41 41 43 46 49 50 50 50 48 47 46 44 42 40 37 35 37 36 36 37 37 39 39 37 36 34 32 31 30 30 29
50 48 46 44 44 43 44 44 46 51 52 51 48 46 45 44 42 38 39 40 38 38 40 41 41 41 41 40 37 34 32 31 31
58 56 54 52 50 47 46 46 46 45 48 49 50 47 45 46 47 44 43 42 41 40 39 39 38 39 39 40 39 38 37 35 34
63 62 61 57 56 54 52 51 50 48 45 46 47 48 47 47 47 46 44 44 44 45 44 40 38 36 39 40 40 38 38 37 36
69 67 65 62 60 60 57 53 53 53 50 48 44 46 47 48 51 50 48 47 47 48 48 43 42 40 38 37 37 36 34 34 36
76 74 72 69 65 63 63 60 56 57 53 52 48 47 46 44 52 52 48 48 48 45 48 43 43 40 38 36 35 33 31 33 35
75 74 74 74 70 68 66 65 64 60 60 58 53 50 47 47 49 40 49 43 43 47 45 45 42 38 40 39 36 38 39 37 39
75 74 71 70 68 70 67 66 67 66 66 63 60 57 51 49 55 51 51 43 51 47 44 45 49 46 45 45 44 46 45 43 39
71 71 71 71 69 67 67 70 68 66 64 63 61 62 62 54 56 60 56 53 51 47 46 48 51 53 52 51 48 48 49 45 43
68 70 70 68 68 67 65 68 68 68 66 66 65 60 57 55 58 53 57 54 60 61 55 57 55 52 51 53 49 49 48 46 43
62 62 65 67 67 67 65 66 67 67 69 66 64 61 61 63 65 65 71 62 57 51 52 58 55 48 51 53 52 54 52 49 44
40 52 57 56 58 59 60 56 55 71 67 71 68 66 66 54 55 64 63 64 67 67 60 54 56 57 57 56 54 50 48 46 44

GFSFLT1_500_spd_126.txt.gz
Wind_Speed
26 26 26 24 24 23 22 22 21 21 22 22 23 27 28 26 24 23 21 20 19 19 19 18 17 16 16 17 17 16 16 15 14
30 29 30 30 29 28 28 26 26 25 23 22 22 24 25 26 27 27 25 23 22 22 20 20 20 19 19 18 18 18 17 17 17
35 35 35 34 34 33 33 32 31 29 29 28 25 24 24 25 26 28 28 26 25 24 23 22 22 21 22 22 21 20 20 19 19
39 39 39 39 39 38 38 38 37 36 34 32 31 29 28 27 26 26 28 29 28 27 26 24 24 23 23 24 24 24 23 22 22
39 40 41 42 42 42 41 42 42 42 41 37 37 36 33 31 29 27 28 28 29 29 28 28 27 27 26 26 26 27 26 25 25
35 37 38 39 41 43 45 45 45 45 43 43 41 41 36 35 33 32 31 31 31 31 31 32 32 31 30 30 29 28 28 28 28
39 40 41 42 43 42 42 44 46 49 47 46 46 44 42 42 39 37 34 33 33 34 33 33 33 33 34 33 32 32 31 30 29
48 49 49 49 48 47 47 46 45 46 48 49 50 47 46 46 44 40 40 37 36 35 36 36 36 35 34 34 34 34 34 33 31
54 55 56 56 57 55 53 52 51 49 47 46 49 49 48 47 46 44 43 42 41 39 38 37 38 38 37 36 35 35 36 35 35
57 57 58 59 60 60 59 58 57 54 51 50 48 48 48 47 47 45 43 42 44 42 41 41 40 40 40 40 39 39 38 38 39
58 60 62 64 64 64 64 62 61 60 58 53 53 49 47 45 45 45 44 43 43 45 45 43 42 42 42 41 41 41 40 39 39
58 61 64 66 67 68 70 68 67 64 64 62 56 57 55 51 48 45 43 44 45 47 47 46 44 46 45 43 43 42 40 39 39
62 63 65 67 68 68 68 70 73 71 68 66 63 61 60 56 54 51 48 46 44 47 49 48 48 47 46 46 45 43 41 42 41
57 55 56 59 59 63 71 73 74 74 73 72 70 67 65 63 59 56 52 49 48 47 48 49 49 49 49 49 46 45 44 41 42
52 50 51 51 57 60 66 64 70 77 76 74 74 71 69 65 63 62 58 54 54 51 48 47 50 56 50 55 51 49 46 46 43
44 45 48 47 51 49 62 70 69 69 76 77 73 73 71 68 65 63 60 57 57 56 51 49 51 53 49 57 54 53 54 50 51
42 42 46 51 51 59 69 72 67 71 69 76 74 72 71 70 67 63 59 58 59 57 54 54 53 54 49 46 45 50 54 59 52
46 50 46 53 51 48 51 49 57 62 65 69 72 70 69 68 67 66 61 60 60 59 60 59 59 60 59 65 55 53 52 57 52
44 46 45 48 48 45 45 40 42 50 59 62 66 66 67 64 63 61 59 61 58 60 66 65 64 63 62 59 54 47 44 53 53
36 38 40 41 42 43 41 39 34 40 48 55 57 62 62 62 62 59 59 57 66 67 62 60 62 65 61 58 62 54 47 40 38

GFSFLT1_500_spd_129.txt.gz
Wind_Speed
24 24 25 25 25 25 25 24 24 23 22 22 22 21 21 23 27 27 25 24 22 21 19 18 19 19 18 17 16 17 16 16 16
29 29 30 30 29 30 29 29 29 28 27 26 25 24 23 22 23 26 28 28 27 24 22 22 20 20 21 20 19 19 19 18 18
35 35 35 35 35 35 34 34 34 33 32 32 31 30 28 26 25 25 27 28 29 28 26 25 24 23 23 23 23 23 22 21 21
36 38 38 39 39 39 39 40 40 38 37 35 36 37 35 33 31 29 27 27 28 30 30 29 27 26 25 25 25 25 25 25 25
32 33 35 36 37 40 41 42 43 44 43 41 39 41 40 39 38 35 32 29 29 29 30 31 31 30 29 28 27 27 27 27 27
33 34 36 37 38 39 39 41 42 44 45 46 46 45 41 43 42 38 36 33 32 32 31 32 33 32 31 30 30 29 29 29 29
39 40 42 44 45 45 45 45 46 46 45 46 47 49 48 45 44 44 42 39 37 36 35 34 34 35 35 35 35 34 32 31 31
46 47 48 49 50 51 52 52 52 52 52 50 49 47 48 51 49 48 49 45 42 41 38 37 37 36 36 36 35 36 36 35 34
49 50 50 51 53 54 55 55 56 56 56 56 55 53 51 49 51 52 53 47 45 44 42 41 39 38 38 37 37 36 36 36 36
47 49 51 51 52 54 55 58 60 59 59 59 59 58 56 54 52 50 53 53 49 47 45 44 43 42 40 39 38 38 38 38 38
48 48 46 48 52 55 58 60 62 63 65 65 63 62 62 59 57 53 50 50 51 49 45 44 44 44 43 42 41 40 40 41 40
46 46 51 53 57 59 61 63 66 67 66 69 68 67 65 64 62 56 54 49 46 46 47 47 45 45 45 45 43 42 41 41 42
47 48 45 49 56 58 56 54 50 56 63 69 71 69 69 68 67 64 59 55 51 47 45 46 48 49 48 46 44 43 43 44 42
43 46 50 49 47 42 40 43 47 45 52 60 70 73 73 71 70 68 63 58 57 54 50 49 49 50 52 51 43 46 46 44 45
41 40 41 43 45 47 49 52 55 57 59 63 66 74 76 77 72 70 69 64 59 55 53 55 57 53 53 54 50 44 46 48 49
39 41 42 42 43 49 55 60 61 57 65 68 73 81 78 74 77 71 69 68 64 61 53 58 50 44 39 47 47 49 52 57 56
40 41 42 41 39 44 48 50 51 56 61 66 64 63 68 71 74 74 70 68 66 60 71 63 63 61 55 54 52 47 55 50 50
42 43 43 41 39 40 43 45 48 55 58 60 52 45 48 60 68 70 65 63 64 66 50 59 60 58 60 60 57 56 57 54 56
42 43 43 42 40 40 41 45 46 48 54 51 39 37 39 51 60 64 67 66 53 64 62 60 58 60 56 55 61 59 60 61 56
45 44 43 42 40 40 41 43 45 45 48 44 29 26 27 40 52 58 62 59 60 57 62 61 63 63 57 61 64 63 63 61 55